Flight Track Log - Related Links

Times and Time Zones

All times are in EDT time to prevent confusion due to time zone crossing. See the UAL139 flight status page for this flight to view local times or setup timezone preferences in your user account.

Time Position Orientation Groundspeed Altitude Reporting Facility
EDT Latitude Longitude Course Direction KTS MPH feet Rate Location/Type
Sun 02:28:22 PM 39.8660 -104.6960 360° North 139 160 5,200  Level FlightAware ADS-B
Sun 02:28:44 PM 39.8850 -104.6960 360° North 184 212 5,700 1,902 Climbing FlightAware ADS-B
Sun 02:28:53 PM 39.8920 -104.6964 358° North 6,000 2,526 Climbing FlightAware ADS-B (EGHH / BOH)
Sun 02:29:03 PM 39.8997 -104.6980 351° North 185 213 6,500 1,600 Climbing FlightAware ADS-B (EGHH / BOH)
Sun 02:29:23 PM 39.9176 -104.7050 343° North 214 246 6,800 1,158 Climbing FlightAware ADS-B (EGHH / BOH)
Sun 02:30:00 PM 39.9560 -104.7270 336° Northwest 265 305 7,600 1,684 Climbing FlightAware ADS-B
Sun 02:30:20 PM 39.9720 -104.7510 311° West 275 316 8,400 2,500 Climbing FlightAware ADS-B
Sun 02:30:36 PM 39.9810 -104.7740 297° West 281 323 9,100 2,875 Climbing FlightAware ADS-B
Sun 02:31:08 PM 40.0020 -104.8230 299° West 287 330 10,700 2,875 Climbing FlightAware ADS-B
Sun 02:31:24 PM 40.0085 -104.8393 297° West 291 335 11,400 1,714 Climbing FlightAware ADS-B (EGHH / BOH)
Sun 02:31:43 PM 40.0151 -104.8814 282° West 313 360 11,700 1,837 Climbing FlightAware ADS-B (EGHH / BOH)
Sun 02:32:13 PM 40.0142 -104.9373 269° West 325 374 12,900 2,262 Climbing FlightAware ADS-B (EGHH / BOH)
Sun 02:32:44 PM 40.0114 -105.0009 267° West 338 389 14,000 2,620 Climbing FlightAware ADS-B (EGHH / BOH)
Sun 02:33:24 PM 40.0061 -105.0818 265° West 337 388 16,000 2,593 Climbing FlightAware ADS-B (EGHH / BOH)
Sun 02:34:05 PM 39.9895 -105.1614 255° West 351 404 17,500 2,113 Climbing FlightAware ADS-B (EGHH / BOH)
Sun 02:34:35 PM 39.9762 -105.2184 253° West 357 411 18,500 2,100 Climbing FlightAware ADS-B (EGHH / BOH)
Sun 02:35:05 PM 39.9604 -105.2874 253° West 363 418 19,600 2,200 Climbing FlightAware ADS-B (EGHH / BOH)
Sun 02:35:35 PM 39.9462 -105.3497 253° West 367 422 20,700 2,057 Climbing FlightAware ADS-B (EGHH / BOH)
Sun 02:36:15 PM 39.9265 -105.4358 253° West 373 429 22,000 1,971 Climbing FlightAware ADS-B (EGHH / BOH)
Sun 02:36:45 PM 39.9155 -105.5026 258° West 375 432 23,000 1,839 Climbing FlightAware ADS-B (EGHH / BOH)
Sun 02:37:17 PM 39.9072 -105.5739 261° West 380 437 23,900 1,969 Climbing FlightAware ADS-B (EGHH / BOH)
Sun 02:37:49 PM 39.8989 -105.6430 261° West 380 437 25,100 1,680 Climbing FlightAware ADS-B (EGHH / BOH)
Sun 02:38:32 PM 39.8876 -105.7366 261° West 369 425 26,000 1,735 Climbing FlightAware ADS-B (EGHH / BOH)
Sun 02:39:12 PM 39.8767 -105.8265 261° West 357 411 27,500 1,714 Climbing FlightAware ADS-B (EGHH / BOH)
Sun 02:39:42 PM 39.8689 -105.8903 261° West 368 423 28,000 1,247 Climbing FlightAware ADS-B (EGHH / BOH)
Sun 02:40:29 PM 39.8569 -105.9892 261° West 373 429 29,100 1,325 Climbing FlightAware ADS-B
Sun 02:40:59 PM 39.8482 -106.0594 261° West 377 434 29,700 871 Climbing FlightAware ADS-B
Sun 02:41:31 PM 39.8392 -106.1322 261° West 392 451 30,000 529 Climbing FlightAware ADS-B
Sun 02:42:07 PM 39.8280 -106.2200 261° West 407 468 30,300 700 Climbing FlightAware ADS-B
Sun 02:42:31 PM 39.8207 -106.2796 261° West 413 475 30,700 1,068 Climbing FlightAware ADS-B (EGHH / BOH)
Sun 02:43:20 PM 39.8060 -106.3970 261° West 417 480 31,600 1,031 Climbing FlightAware ADS-B
Sun 02:43:35 PM 39.8006 -106.4373 260° West 423 487 31,800 706 Climbing FlightAware ADS-B
Sun 02:44:28 PM 39.7862 -106.5700 262° West 429 494 32,400 742 Climbing FlightAware ADS-B
Sun 02:45:04 PM 39.7800 -106.6640 265° West 433 498 32,900 738 Climbing FlightAware ADS-B
Sun 02:45:33 PM 39.7751 -106.7374 265° West 441 507 33,200 636 Climbing FlightAware ADS-B
Sun 02:46:10 PM 39.7685 -106.8358 265° West 449 517 33,600 686 Climbing FlightAware ADS-B
Sun 02:46:43 PM 39.7623 -106.9264 265° West 453 521 34,000 857 Climbing FlightAware ADS-B
Sun 02:47:13 PM 39.7571 -106.9995 265° West 454 522 34,500 985 Climbing FlightAware ADS-B (EGHH / BOH)
Sun 02:47:50 PM 39.7499 -107.1052 265° West 454 522 35,100 806 Climbing FlightAware ADS-B
Sun 02:48:20 PM 39.7442 -107.1893 265° West 456 525 35,400 571 Climbing FlightAware ADS-B
Sun 02:48:53 PM 39.7383 -107.2734 265° West 459 528 35,700 571 Climbing FlightAware ADS-B
Sun 02:49:23 PM 39.7321 -107.3591 265° West 462 532 36,000 590 Climbing FlightAware ADS-B
Sun 02:49:54 PM 39.7271 -107.4276 265° West 464 534 36,300 787 Climbing FlightAware ADS-B
Sun 02:50:24 PM 39.7193 -107.5326 265° West 462 532 36,800 900 Climbing FlightAware ADS-B
Sun 02:50:54 PM 39.7142 -107.6041 265° West 460 529 37,200 700 Climbing FlightAware ADS-B
Sun 02:51:24 PM 39.7073 -107.6958 264° West 462 532 37,500 484 Climbing FlightAware ADS-B
Sun 02:51:56 PM 39.7006 -107.7855 264° West 465 535 37,700 290 Climbing FlightAware ADS-B
Sun 02:52:26 PM 39.6942 -107.8693 264° West 467 537 37,800 286 Climbing FlightAware ADS-B
Sun 02:52:59 PM 39.6875 -107.9567 264° West 467 537 38,000 162 Climbing FlightAware ADS-B
Sun 02:53:40 PM 39.6790 -108.0648 264° West 465 535 38,000  Level FlightAware ADS-B
Sun 02:54:10 PM 39.6736 -108.1357 264° West 463 533 38,000  Level FlightAware ADS-B
Sun 02:54:40 PM 39.6652 -108.2405 264° West 463 533 38,000  Level FlightAware ADS-B
Sun 02:55:11 PM 39.6585 -108.3243 264° West 463 533 38,000  Level FlightAware ADS-B
Sun 02:55:44 PM 39.6514 -108.4126 264° West 465 535 38,000  Level FlightAware ADS-B
Sun 02:56:14 PM 39.6443 -108.4995 264° West 465 535 38,000  Level FlightAware ADS-B
Sun 02:56:44 PM 39.6380 -108.5754 264° West 461 531 38,000  Level FlightAware ADS-B
Sun 02:57:14 PM 39.6310 -108.6592 264° West 461 531 38,000  Level FlightAware ADS-B
Sun 02:57:47 PM 39.6237 -108.7466 264° West 463 533 38,000  Level FlightAware ADS-B
Sun 02:58:17 PM 39.6169 -108.8273 264° West 462 532 38,000  Level FlightAware ADS-B
Sun 02:58:48 PM 39.6099 -108.9104 264° West 464 534 38,000  Level FlightAware ADS-B
Sun 02:59:28 PM 39.5999 -109.0266 264° West 463 533 38,000  Level FlightAware ADS-B
Sun 03:00:02 PM 39.5923 -109.1131 264° West 465 535 38,000  Level FlightAware ADS-B
Sun 03:00:32 PM 39.5838 -109.2100 264° West 466 536 38,000  Level FlightAware ADS-B
Sun 03:01:04 PM 39.5762 -109.2964 264° West 467 537 38,000  Level FlightAware ADS-B
Sun 03:01:35 PM 39.5683 -109.3847 263° West 467 537 38,000  Level FlightAware ADS-B
Sun 03:02:08 PM 39.5603 -109.4736 263° West 468 539 38,000  Level FlightAware ADS-B
Sun 03:02:52 PM 39.5523 -109.5615 263° West 468 539 38,000  Level FlightAware ADS-B
Sun 03:03:22 PM 39.5418 -109.6754 263° West 468 539 38,000  Level FlightAware ADS-B
Sun 03:03:53 PM 39.5338 -109.7617 263° West 469 540 38,000  Level FlightAware ADS-B
Sun 03:04:25 PM 39.5254 -109.8519 263° West 469 540 38,000  Level FlightAware ADS-B
Sun 03:04:55 PM 39.5170 -109.9405 263° West 470 541 38,000  Level FlightAware ADS-B
Sun 03:05:26 PM 39.5086 -110.0258 263° West 473 544 38,000  Level FlightAware ADS-B
Sun 03:05:56 PM 39.4994 -110.0949 260° West 473 544 38,000  Level FlightAware ADS-B
Sun 03:06:29 PM 39.4848 -110.1990 260° West 471 542 38,000  Level FlightAware ADS-B
Sun 03:07:00 PM 39.4736 -110.2811 260° West 472 543 38,000  Level FlightAware ADS-B
Sun 03:07:32 PM 39.4609 -110.3755 260° West 473 544 38,000  Level FlightAware ADS-B
Sun 03:08:02 PM 39.4521 -110.4417 260° West 475 547 38,000  Level FlightAware ADS-B
Sun 03:08:39 PM 39.4388 -110.5424 260° West 476 548 38,000  Level FlightAware ADS-B
Sun 03:09:13 PM 39.4243 -110.6503 260° West 477 549 38,000  Level FlightAware ADS-B
Sun 03:09:46 PM 39.4148 -110.7199 260° West 479 551 38,000  Level FlightAware ADS-B
Sun 03:10:18 PM 39.3991 -110.8343 260° West 482 555 38,000  Level FlightAware ADS-B
Sun 03:10:57 PM 39.3838 -110.9464 260° West 482 555 38,000  Level FlightAware ADS-B
Sun 03:11:35 PM 39.3687 -111.0544 260° West 483 556 38,000  Level FlightAware ADS-B
Sun 03:11:43 PM 39.3651 -111.0800 260° West 483 556 38,000  Level FlightAware ADS-B
Sun 03:12:05 PM 39.3562 -111.1427 260° West 483 556 38,000  Level FlightAware ADS-B
Sun 03:12:18 PM 39.3511 -111.1790 260° West 483 556 38,000  Level FlightAware ADS-B
Sun 03:12:36 PM 39.3443 -111.2273 260° West 480 552 38,000  Level FlightAware ADS-B
Sun 03:12:48 PM 39.3388 -111.2660 260° West 480 552 38,000  Level FlightAware ADS-B
Sun 03:13:07 PM 39.3321 -111.3140 260° West 480 552 38,000  Level FlightAware ADS-B
Sun 03:13:19 PM 39.3268 -111.3510 260° West 479 551 38,000  Level FlightAware ADS-B
Sun 03:13:37 PM 39.3193 -111.4032 260° West 479 551 38,000  Level FlightAware ADS-B
Sun 03:13:49 PM 39.3145 -111.4370 260° West 480 552 38,000  Level FlightAware ADS-B
Sun 03:14:19 PM 39.3022 -111.5230 260° West 483 556 38,000  Level FlightAware ADS-B
Sun 03:14:27 PM 39.2991 -111.5441 259° West 483 556 38,000  Level FlightAware ADS-B
Sun 03:14:50 PM 39.2897 -111.6090 259° West 484 557 38,000  Level FlightAware ADS-B
Sun 03:15:03 PM 39.2862 -111.6330 259° West 484 557 38,000  Level FlightAware ADS-B
Sun 03:15:21 PM 39.2771 -111.6960 259° West 483 556 38,000  Level FlightAware ADS-B
Sun 03:15:35 PM 39.2726 -111.7264 259° West 484 557 38,000  Level FlightAware ADS-B
Sun 03:15:53 PM 39.2637 -111.7870 259° West 484 557 38,000  Level FlightAware ADS-B
Sun 03:16:07 PM 39.2585 -111.8221 259° West 484 557 38,000  Level FlightAware ADS-B
Sun 03:16:38 PM 39.2468 -111.9019 259° West 484 557 38,000  Level FlightAware ADS-B
Sun 03:16:41 PM 39.2438 -111.9220 259° West 483 556 38,000  Level FlightAware ADS-B
Sun 03:17:09 PM 39.2326 -111.9985 259° West 484 557 38,000  Level FlightAware ADS-B
Sun 03:17:11 PM 39.2311 -112.0080 259° West 483 556 38,000  Level FlightAware ADS-B
Sun 03:17:39 PM 39.2200 -112.0826 259° West 483 556 38,000  Level FlightAware ADS-B
Sun 03:17:44 PM 39.2173 -112.1010 259° West 483 556 38,000  Level FlightAware ADS-B
Sun 03:18:14 PM 39.2055 -112.1801 259° West 482 555 38,000  Level FlightAware ADS-B
Sun 03:18:44 PM 39.1922 -112.2679 259° West 482 555 38,000  Level FlightAware ADS-B
Sun 03:18:45 PM 39.1916 -112.2720 259° West 482 555 38,000  Level FlightAware ADS-B
Sun 03:19:18 PM 39.1773 -112.3660 259° West 483 556 38,000  Level FlightAware ADS-B
Sun 03:19:22 PM 39.1757 -112.3772 259° West 484 557 38,000  Level FlightAware ADS-B
Sun 03:19:51 PM 39.1634 -112.4580 259° West 485 558 38,000  Level FlightAware ADS-B
Sun 03:20:12 PM 39.1544 -112.5169 259° West 487 560 38,000  Level FlightAware ADS-B
Sun 03:20:21 PM 39.1503 -112.5440 259° West 487 560 38,000  Level FlightAware ADS-B
Sun 03:20:43 PM 39.1409 -112.6049 259° West 487 560 38,000  Level FlightAware ADS-B
Sun 03:20:51 PM 39.1371 -112.6300 259° West 486 559 38,000  Level FlightAware ADS-B
Sun 03:21:13 PM 39.1303 -112.6751 259° West 483 556 38,000  Level FlightAware ADS-B
Sun 03:21:23 PM 39.1237 -112.7180 259° West 482 555 38,000  Level FlightAware ADS-B
Sun 03:21:45 PM 39.1152 -112.7738 259° West 481 554 38,000  Level FlightAware ADS-B
Sun 03:21:53 PM 39.1107 -112.8030 259° West 482 555 38,000  Level FlightAware ADS-B
Sun 03:22:16 PM 39.1007 -112.8683 259° West 483 556 38,000  Level FlightAware ADS-B
Sun 03:22:24 PM 39.0972 -112.8910 259° West 482 555 38,000  Level FlightAware ADS-B
Sun 03:22:47 PM 39.0886 -112.9470 259° West 483 556 38,000  Level FlightAware ADS-B
Sun 03:23:00 PM 39.0817 -112.9910 259° West 486 559 38,000  Level FlightAware ADS-B
Sun 03:23:25 PM 39.0711 -113.0590 259° West 487 560 38,000  Level FlightAware ADS-B
Sun 03:23:56 PM 39.0588 -113.1379 259° West 490 564 38,000  Level FlightAware ADS-B
Sun 03:24:36 PM 39.0393 -113.2617 259° West 486 559 38,000  Level FlightAware ADS-B
Sun 03:25:18 PM 39.0204 -113.3808 258° West 487 560 38,000  Level FlightAware ADS-B
Sun 03:25:48 PM 39.0069 -113.4657 258° West 487 560 38,000  Level FlightAware ADS-B
Sun 03:26:22 PM 38.9918 -113.5595 258° West 487 560 38,000  Level FlightAware ADS-B
Sun 03:26:56 PM 38.9764 -113.6548 258° West 490 564 38,000  Level FlightAware ADS-B
Sun 03:27:28 PM 38.9614 -113.7479 258° West 492 566 38,000  Level FlightAware ADS-B
Sun 03:27:59 PM 38.9473 -113.8336 258° West 493 567 38,000  Level FlightAware ADS-B
Sun 03:28:32 PM 38.9319 -113.9271 258° West 493 567 38,000  Level FlightAware ADS-B
Sun 03:29:12 PM 38.9141 -114.0358 258° West 494 568 38,000  Level FlightAware ADS-B
Sun 03:29:52 PM 38.8949 -114.1515 258° West 496 571 38,000  Level FlightAware ADS-B
Sun 03:30:32 PM 38.8738 -114.2777 258° West 496 571 38,000  Level FlightAware ADS-B
Sun 03:31:13 PM 38.8720 -114.2890 258° West 492 566 38,000  Level FlightAware ADS-B
Sun 03:31:49 PM 38.8570 -114.3770 258° West 492 566 38,000  Level FlightAware ADS-B
Sun 03:32:35 PM 38.8390 -114.4890 258° West 492 566 38,000  Level FlightAware ADS-B
Sun 03:33:12 PM 38.8240 -114.5790 258° West 492 566 38,000  Level FlightAware ADS-B
Sun 03:33:49 PM 38.8090 -114.6680 258° West 492 566 38,000  Level FlightAware ADS-B
Sun 03:34:23 PM 38.7950 -114.7510 258° West 492 566 38,000  Level FlightAware ADS-B
Sun 03:35:00 PM 38.7800 -114.8410 258° West 492 566 38,000  Level FlightAware ADS-B
Sun 03:35:36 PM 38.7660 -114.9280 258° West 492 566 38,000  Level FlightAware ADS-B
Sun 03:36:13 PM 38.7510 -115.0180 258° West 492 566 38,000  Level FlightAware ADS-B
Sun 03:36:49 PM 38.7360 -115.1050 258° West 492 566 38,000  Level FlightAware ADS-B
Sun 03:37:21 PM 38.6728 -115.4361 258° West 498 573 38,000  Level Salt Lake Center
Sun 03:42:53 PM 38.4990 -116.3900 258° West 495 570 38,000  Level FlightAware ADS-B
Sun 03:43:26 PM 38.4810 -116.4870 257° West 496 571 38,000  Level FlightAware ADS-B
Sun 03:44:01 PM 38.4620 -116.5870 256° West 497 572 38,000  Level FlightAware ADS-B
Sun 03:44:36 PM 38.4430 -116.6870 256° West 497 572 38,000  Level FlightAware ADS-B
Sun 03:45:16 PM 38.4210 -116.8010 256° West 497 572 38,000  Level FlightAware ADS-B
Sun 03:45:56 PM 38.4000 -116.9140 257° West 496 571 38,000  Level FlightAware ADS-B
Sun 03:46:31 PM 38.3810 -117.0100 256° West 498 573 38,000  Level FlightAware ADS-B
Sun 03:47:13 PM 38.3620 -117.1110 257° West 498 573 38,000  Level FlightAware ADS-B
Sun 03:47:49 PM 38.3470 -117.1990 258° West 498 573 38,000  Level FlightAware ADS-B
Sun 03:48:11 PM 38.3280 -117.2890 255° West 499 574 38,000  Level FlightAware ADS-B
Sun 03:48:48 PM 38.3140 -117.3800 259° West 499 574 38,000  Level FlightAware ADS-B
Sun 03:49:24 PM 38.3010 -117.4680 259° West 499 574 38,000  Level FlightAware ADS-B
Sun 03:50:00 PM 38.2870 -117.5570 259° West 499 574 38,000  Level FlightAware ADS-B
Sun 03:50:36 PM 38.2740 -117.6450 259° West 499 574 38,000  Level FlightAware ADS-B
Sun 03:51:08 PM 38.2620 -117.8180 265° West 502 578 38,000  Level FlightAware ADS-B
Sun 03:51:43 PM 38.2490 -117.9200 261° West 502 578 38,000  Level FlightAware ADS-B
Sun 03:52:16 PM 38.2370 -118.0150 261° West 503 579 38,000  Level FlightAware ADS-B
Sun 03:52:56 PM 38.2220 -118.1320 261° West 502 578 38,000  Level FlightAware ADS-B
Sun 03:53:27 PM 38.2100 -118.2240 261° West 503 579 38,000  Level FlightAware ADS-B
Sun 03:54:05 PM 38.1970 -118.3180 260° West 503 579 38,000  Level FlightAware ADS-B
Sun 03:54:37 PM 38.1840 -118.4170 261° West 504 580 38,000  Level FlightAware ADS-B
Sun 03:55:25 PM 38.1690 -118.5330 261° West 503 579 38,000  Level FlightAware ADS-B
Sun 03:56:22 PM 38.1450 -118.7140 260° West 502 578 38,000  Level FlightAware ADS-B
Sun 03:56:59 PM 38.1280 -118.8370 260° West 506 582 38,000  Level FlightAware ADS-B
Sun 03:57:28 PM 38.1170 -118.9220 261° West 506 582 38,000  Level FlightAware ADS-B
Sun 03:58:02 PM 38.1020 -119.0260 260° West 508 585 38,000  Level FlightAware ADS-B
Sun 03:58:34 PM 38.0896 -119.1190 260° West 509 586 38,000  Level FlightAware ADS-B
Sun 03:59:14 PM 38.0739 -119.2332 260° West 508 585 38,000  Level FlightAware ADS-B
Sun 03:59:44 PM 38.0619 -119.3196 260° West 505 581 38,000  Level FlightAware ADS-B
Sun 04:00:22 PM 38.0460 -119.4350 260° West 503 579 38,000  Level FlightAware ADS-B
Sun 04:00:40 PM 38.0507 -119.3987 81° East 502 578 38,000  Level FlightAware ADS-B
Sun 04:01:27 PM 38.0196 -119.6185 260° West 501 577 38,000  Level FlightAware ADS-B
Sun 04:01:58 PM 38.0065 -119.7108 260° West 501 577 38,000  Level FlightAware ADS-B
Sun 04:02:43 PM 37.9880 -119.8400 260° West 499 574 38,000  Level FlightAware ADS-B
Sun 04:03:21 PM 37.9720 -119.9490 259° West 501 577 38,000  Level FlightAware ADS-B
Sun 04:03:53 PM 37.9580 -120.0420 259° West 502 578 38,000  Level FlightAware ADS-B
Sun 04:04:31 PM 37.9430 -120.1470 260° West 501 577 38,000  Level FlightAware ADS-B
Sun 04:04:57 PM 37.9310 -120.2280 259° West 502 578 38,000  Level FlightAware ADS-B
Sun 04:05:39 PM 37.9130 -120.3470 259° West 502 578 38,000  Level FlightAware ADS-B
Sun 04:06:11 PM 37.8990 -120.4410 259° West 502 578 38,000  Level FlightAware ADS-B
Sun 04:06:49 PM 37.8830 -120.5490 259° West 502 578 38,000  Level FlightAware ADS-B
Sun 04:07:22 PM 37.8690 -120.6450 260° West 503 579 38,000  Level FlightAware ADS-B
Sun 04:07:31 PM 37.8659 -120.6755 263° West 503 579 38,000  Level FlightAware ADS-B
Sun 04:08:01 PM 37.8600 -120.7530 264° West 503 579 38,000  Level FlightAware ADS-B
Sun 04:08:32 PM 37.8540 -120.8490 266° West 504 580 38,000  Level FlightAware ADS-B
Sun 04:09:07 PM 37.8480 -120.9460 266° West 505 581 38,000  Level FlightAware ADS-B
Sun 04:09:44 PM 37.8410 -121.0570 265° West 503 579 38,000  Level FlightAware ADS-B
Sun 04:10:20 PM 37.8340 -121.1610 265° West 503 579 38,000  Level FlightAware ADS-B
Sun 04:10:52 PM 37.8260 -121.2600 264° West 503 579 38,000  Level FlightAware ADS-B
Sun 04:11:20 PM 37.8171 -121.3430 262° West 503 579 38,000  Level FlightAware ADS-B
Sun 04:11:52 PM 37.8072 -121.4370 262° West 503 579 38,000  Level FlightAware ADS-B
Sun 04:12:29 PM 37.7961 -121.5440 263° West 503 579 38,000  Level FlightAware ADS-B
Sun 04:13:01 PM 37.7867 -121.6370 263° West 502 578 38,000  Level FlightAware ADS-B
Sun 04:13:32 PM 37.7777 -121.7260 263° West 500 575 38,000  Level FlightAware ADS-B
Sun 04:14:04 PM 37.7684 -121.8180 263° West 498 573 38,000  Level FlightAware ADS-B
Sun 04:14:41 PM 37.7575 -121.9230 263° West 495 570 38,000  Level FlightAware ADS-B
Sun 04:15:12 PM 37.7480 -122.0150 263° West 494 568 38,000  Level FlightAware ADS-B
Sun 04:15:49 PM 37.7369 -122.1200 262° West 495 570 38,000  Level FlightAware ADS-B
Sun 04:16:45 PM 37.7280 -122.2760 266° West 495 570 38,000  Level FlightAware ADS-B
Sun 04:17:20 PM 37.7330 -122.3770 274° West 494 568 38,000  Level FlightAware ADS-B
Sun 04:17:50 PM 37.7370 -122.4640 273° West 493 567 38,000  Level FlightAware ADS-B
Sun 04:18:17 PM 37.7400 -122.5450 273° West 493 567 38,000  Level FlightAware ADS-B
Sun 04:19:02 PM 37.7453 -122.6720 273° West 493 567 38,000  Level FlightAware ADS-B
Sun 04:19:41 PM 37.7500 -122.7820 273° West 493 567 38,000  Level FlightAware ADS-B
Sun 04:20:15 PM 37.7580 -122.8800 276° West 490 564 38,000  Level FlightAware ADS-B
Sun 04:20:53 PM 37.7690 -122.9850 278° West 489 563 38,000  Level FlightAware ADS-B
Sun 04:21:23 PM 37.7790 -123.0710 278° West 489 563 38,000  Level FlightAware ADS-B
Sun 04:22:01 PM 37.7900 -123.1760 278° West 488 562 38,000  Level FlightAware ADS-B
Sun 04:22:31 PM 37.7990 -123.2650 277° West 489 563 38,000  Level FlightAware ADS-B
Sun 04:23:11 PM 37.8110 -123.3780 278° West 488 562 38,000  Level FlightAware ADS-B
Sun 04:23:47 PM 37.8210 -123.4780 277° West 489 563 38,000  Level FlightAware ADS-B
Sun 04:24:24 PM 37.8320 -123.5860 277° West 490 564 38,000  Level FlightAware ADS-B
Sun 04:24:54 PM 37.8410 -123.6710 278° West 491 565 38,000  Level FlightAware ADS-B
Sun 04:25:32 PM 37.8520 -123.7780 277° West 490 564 38,000  Level FlightAware ADS-B
Sun 04:26:09 PM 37.8620 -123.8820 277° West 490 564 38,000  Level FlightAware ADS-B
Sun 04:26:42 PM 37.8720 -123.9780 278° West 490 564 38,000  Level FlightAware ADS-B
Sun 04:27:16 PM 37.8810 -124.0700 277° West 490 564 38,000  Level FlightAware ADS-B
Sun 04:28:06 PM 37.8940 -124.2010 277° West 490 564 38,000  Level FlightAware ADS-B
Sun 04:28:40 PM 37.9020 -124.2830 277° West 490 564 38,000  Level FlightAware ADS-B
Sun 04:29:16 PM 37.9100 -124.3700 277° West 490 564 38,000  Level FlightAware ADS-B
Sun 04:29:52 PM 37.9180 -124.4580 277° West 490 564 38,000  Level FlightAware ADS-B
Sun 04:30:28 PM 37.9270 -124.5450 277° West 490 564 38,000  Level FlightAware ADS-B
Sun 04:31:04 PM 37.9350 -124.6320 277° West 490 564 38,000  Level FlightAware ADS-B
Sun 04:31:40 PM 37.9440 -124.7200 277° West 490 564 38,000  Level FlightAware ADS-B
Sun 04:32:17 PM 37.9520 -124.8090 277° West 490 564 38,000  Level FlightAware ADS-B
Sun 04:32:53 PM 37.9610 -124.8970 277° West 490 564 38,000  Level FlightAware ADS-B
Sun 04:33:30 PM 37.9700 -124.9860 277° West 490 564 38,000  Level FlightAware ADS-B
Sun 04:34:06 PM 37.9780 -125.0740 277° West 490 564 38,000  Level FlightAware ADS-B
Sun 04:34:43 PM 37.9870 -125.1640 277° West 490 564 38,000  Level FlightAware ADS-B
Sun 04:35:19 PM 37.9950 -125.2510 277° West 490 564 38,000  Level FlightAware ADS-B
Sun 04:35:55 PM 38.0040 -125.3380 278° West 490 564 38,000  Level FlightAware ADS-B
Sun 04:36:31 PM 38.0120 -125.4260 277° West 490 564 38,000  Level FlightAware ADS-B
Sun 04:37:05 PM 38.0200 -125.5080 277° West 490 564 38,000 -69 Level FlightAware ADS-B
Sun 04:37:58 PM 38.0444 -125.8728 277° West 488 562 37,900  Descending Oakland Center
Sun 04:39:00 PM 38.0586 -126.0428 276° West 487 560 38,000 48 Climbing Oakland Center
Sun 04:40:02 PM 38.0739 -126.2361 276° West 484 557 38,000 -48 Level Oakland Center
Sun 04:41:04 PM 38.0861 -126.4075 275° West 487 560 37,900  Descending Oakland Center
Sun 04:42:06 PM 38.0997 -126.5789 276° West 488 562 38,000 49 Climbing Oakland Center
Sun 04:43:07 PM 38.1125 -126.7506 275° West 488 562 38,000  Level Oakland Center
Sun 04:44:09 PM 38.1256 -126.9211 276° West 488 562 38,000  Level Oakland Center
Sun 04:44:40 PM 38.1333 -127.0000 288° West 485 558 38,000  Level Oakland Oceanic (ODAPS)
Sun 04:49:53 PM 38.3333 -127.8500 287° West 480 552 38,000  Level Oakland Oceanic (ODAPS)
Sun 04:52:00 PM 38.4374 -128.2560 287° West 485 558 38,000  Level FlightAware Transoceanic
Sun 04:53:00 PM 38.4744 -128.4138 287° West 485 558 38,000  Level FlightAware Transoceanic
Sun 04:54:00 PM 38.5113 -128.5717 287° West 485 558 38,000  Level FlightAware Transoceanic
Sun 04:55:00 PM 38.5479 -128.7298 286° West 485 558 38,000  Level FlightAware Transoceanic
Sun 04:56:00 PM 38.5690 -128.8386 287° West 480 552 38,000  Level FlightAware Transoceanic
Sun 04:57:00 PM 38.6074 -129.0040 287° West 480 552 38,000  Level FlightAware Transoceanic
Sun 04:58:00 PM 38.6457 -129.1695 286° West 480 552 38,000  Level FlightAware Transoceanic
Sun 04:59:00 PM 38.6837 -129.3353 286° West 480 552 38,000  Level FlightAware Transoceanic
Sun 05:00:00 PM 38.7215 -129.5012 286° West 480 552 38,000  Level FlightAware Transoceanic
Sun 05:01:00 PM 38.7590 -129.6673 286° West 480 552 38,000  Level FlightAware Transoceanic
Sun 05:02:00 PM 38.7963 -129.8336 286° West 480 552 38,000  Level FlightAware Transoceanic
Sun 05:03:00 PM 38.8333 -130.0000 289° West 480 552 38,000  Level FlightAware Transoceanic
Sun 05:03:45 PM 38.8333 -130.0000 289° West 477 549 38,000  Level Oakland Oceanic (ODAPS)
Sun 05:03:55 PM 38.8667 -130.1000 289° West 475 547 38,000  Level Oakland Oceanic (ODAPS)
Sun 05:04:00 PM 38.8756 -130.1586 289° West 480 552 38,000  Level FlightAware Transoceanic
Sun 05:05:00 PM 38.9177 -130.3174 289° West 480 552 38,000  Level FlightAware Transoceanic
Sun 05:06:00 PM 38.9596 -130.4765 289° West 480 552 38,000  Level FlightAware Transoceanic
Sun 05:07:00 PM 39.0012 -130.6356 289° West 480 552 38,000  Level FlightAware Transoceanic
Sun 05:08:00 PM 39.0426 -130.7950 288° West 480 552 38,000  Level FlightAware Transoceanic
Sun 05:09:00 PM 39.0880 -130.9706 288° West 477 549 38,000  Level FlightAware Transoceanic
Sun 05:10:00 PM 39.1214 -131.0776 288° West 475 547 38,000  Level FlightAware Transoceanic
Sun 05:11:00 PM 39.1631 -131.2412 288° West 475 547 38,000  Level FlightAware Transoceanic
Sun 05:12:00 PM 39.2045 -131.4051 288° West 475 547 38,000  Level FlightAware Transoceanic
Sun 05:13:00 PM 39.2457 -131.5691 288° West 475 547 38,000  Level FlightAware Transoceanic
Sun 05:14:00 PM 39.2867 -131.7333 288° West 475 547 38,000  Level FlightAware Transoceanic
Sun 05:15:00 PM 39.3274 -131.8976 288° West 475 547 38,000  Level FlightAware Transoceanic
Sun 05:16:00 PM 39.3679 -132.0622 288° West 475 547 38,000  Level FlightAware Transoceanic
Sun 05:17:00 PM 39.4082 -132.2270 287° West 475 547 38,000  Level FlightAware Transoceanic
Sun 05:17:43 PM 39.4333 -132.3667 287° West 481 554 38,000  Level Oakland Oceanic (ODAPS)
Sun 05:18:00 PM 39.4482 -132.3920 287° West 475 547 38,000  Level FlightAware Transoceanic
Sun 05:19:00 PM 39.4880 -132.5571 287° West 475 547 38,000  Level FlightAware Transoceanic
Sun 05:20:00 PM 39.5276 -132.7224 287° West 475 547 38,000  Level FlightAware Transoceanic
Sun 05:21:00 PM 39.5670 -132.8880 287° West 475 547 38,000  Level FlightAware Transoceanic
Sun 05:22:00 PM 39.6061 -133.0537 287° West 475 547 38,000  Level FlightAware Transoceanic
Sun 05:23:00 PM 39.6658 -133.3418 287° West 481 554 38,000  Level FlightAware Transoceanic
Sun 05:24:00 PM 39.7037 -133.5049 287° West 481 554 38,000  Level FlightAware Transoceanic
Sun 05:25:00 PM 39.7414 -133.6682 287° West 481 554 38,000  Level FlightAware Transoceanic
Sun 05:26:00 PM 39.7789 -133.8317 287° West 481 554 38,000  Level FlightAware Transoceanic
Sun 05:27:00 PM 39.8162 -133.9954 286° West 481 554 38,000  Level FlightAware Transoceanic
Sun 05:28:00 PM 39.8532 -134.1593 286° West 481 554 38,000  Level FlightAware Transoceanic
Sun 05:29:00 PM 39.8900 -134.3233 286° West 481 554 38,000  Level FlightAware Transoceanic
Sun 05:30:00 PM 39.9266 -134.4875 286° West 481 554 38,000  Level FlightAware Transoceanic
Sun 05:31:00 PM 39.9629 -134.6519 286° West 481 554 38,000  Level FlightAware Transoceanic
Sun 05:31:34 PM 39.9667 -134.6833 286° West 484 557 38,000  Level Oakland Oceanic (ODAPS)
Sun 05:32:00 PM 39.9990 -134.8165 286° West 481 554 38,000  Level FlightAware Transoceanic
Sun 05:33:00 PM 40.0349 -134.9812 286° West 481 554 38,000  Level FlightAware Transoceanic
Sun 05:34:00 PM 40.0705 -135.1461 286° West 481 554 38,000  Level FlightAware Transoceanic
Sun 05:35:00 PM 40.1059 -135.3112 286° West 481 554 38,000  Level FlightAware Transoceanic
Sun 05:36:00 PM 40.1411 -135.4764 285° West 481 554 38,000  Level FlightAware Transoceanic
Sun 05:37:00 PM 40.1856 -135.6994 285° West 484 557 38,000  Level FlightAware Transoceanic
Sun 05:38:00 PM 40.2212 -135.8693 285° West 484 557 38,000  Level FlightAware Transoceanic
Sun 05:39:00 PM 40.2565 -136.0395 285° West 484 557 38,000  Level FlightAware Transoceanic
Sun 05:40:00 PM 40.2916 -136.2098 285° West 484 557 38,000  Level FlightAware Transoceanic
Sun 05:41:00 PM 40.3265 -136.3803 285° West 484 557 38,000  Level FlightAware Transoceanic
Sun 05:42:00 PM 40.3611 -136.5510 285° West 484 557 38,000  Level FlightAware Transoceanic
Sun 05:43:00 PM 40.3955 -136.7218 285° West 484 557 38,000  Level FlightAware Transoceanic
Sun 05:44:00 PM 40.4296 -136.8929 285° West 484 557 38,000  Level FlightAware Transoceanic
Sun 05:45:00 PM 40.4635 -137.0641 285° West 484 557 38,000  Level FlightAware Transoceanic
Sun 05:45:30 PM 40.4500 -137.0167 285° West 472 543 38,000  Level Oakland Oceanic (ODAPS)
Sun 05:46:00 PM 40.4971 -137.2354 284° West 484 557 38,000  Level FlightAware Transoceanic
Sun 05:47:00 PM 40.5304 -137.4070 284° West 484 557 38,000  Level FlightAware Transoceanic
Sun 05:48:00 PM 40.5635 -137.5787 284° West 484 557 38,000  Level FlightAware Transoceanic
Sun 05:49:00 PM 40.5964 -137.7506 284° West 484 557 38,000  Level FlightAware Transoceanic
Sun 05:50:00 PM 40.6290 -137.9226 284° West 484 557 38,000  Level FlightAware Transoceanic
Sun 05:51:00 PM 40.6418 -138.0056 284° West 472 543 38,000  Level FlightAware Transoceanic
Sun 05:52:00 PM 40.6730 -138.1710 284° West 472 543 38,000  Level FlightAware Transoceanic
Sun 05:53:00 PM 40.7039 -138.3365 284° West 472 543 38,000  Level FlightAware Transoceanic
Sun 05:54:00 PM 40.7346 -138.5022 284° West 472 543 38,000  Level FlightAware Transoceanic
Sun 05:55:00 PM 40.7650 -138.6680 284° West 472 543 38,000  Level FlightAware Transoceanic
Sun 05:56:00 PM 40.7952 -138.8340 283° West 472 543 38,000  Level FlightAware Transoceanic
Sun 05:57:00 PM 40.8252 -139.0001 283° West 472 543 38,000  Level FlightAware Transoceanic
Sun 05:58:00 PM 40.8549 -139.1664 283° West 472 543 38,000  Level FlightAware Transoceanic
Sun 05:59:00 PM 40.8844 -139.3328 283° West 472 543 38,000  Level FlightAware Transoceanic
Sun 05:59:22 PM 40.8833 -139.3000 283° West 468 539 38,000  Level Oakland Oceanic (ODAPS)
Sun 06:00:00 PM 40.9137 -139.4994 283° West 472 543 38,000  Level FlightAware Transoceanic
Sun 06:01:00 PM 40.9427 -139.6661 283° West 472 543 38,000  Level FlightAware Transoceanic
Sun 06:02:00 PM 40.9715 -139.8330 283° West 472 543 38,000  Level FlightAware Transoceanic
Sun 06:03:00 PM 41.0000 -140.0000 288° West 472 543 38,000  Level FlightAware Transoceanic
Sun 06:03:29 PM 41.0000 -140.0000 288° West 467 537 38,000  Level Oakland Oceanic (ODAPS)
Sun 06:04:00 PM 41.0403 -140.1613 288° West 472 543 38,000  Level FlightAware Transoceanic
Sun 06:05:00 PM 41.0804 -140.3227 288° West 468 539 38,000  Level FlightAware Transoceanic
Sun 06:06:00 PM 41.1202 -140.4844 288° West 468 539 38,000  Level FlightAware Transoceanic
Sun 06:07:00 PM 41.1598 -140.6463 288° West 468 539 38,000  Level FlightAware Transoceanic
Sun 06:08:00 PM 41.1992 -140.8083 288° West 468 539 38,000  Level FlightAware Transoceanic
Sun 06:09:00 PM 41.2384 -140.9706 288° West 467 537 38,000  Level FlightAware Transoceanic
Sun 06:10:00 PM 41.2773 -141.1330 288° West 467 537 38,000  Level FlightAware Transoceanic
Sun 06:11:00 PM 41.3160 -141.2957 288° West 467 537 38,000  Level FlightAware Transoceanic
Sun 06:12:00 PM 41.3545 -141.4585 287° West 467 537 38,000  Level FlightAware Transoceanic
Sun 06:13:00 PM 41.3928 -141.6215 287° West 467 537 38,000  Level FlightAware Transoceanic
Sun 06:13:19 PM 41.3833 -141.5500 287° West 460 529 38,000  Level Oakland Oceanic (ODAPS)
Sun 06:14:00 PM 41.4308 -141.7847 287° West 467 537 38,000  Level FlightAware Transoceanic
Sun 06:15:00 PM 41.4686 -141.9481 287° West 467 537 38,000  Level FlightAware Transoceanic
Sun 06:16:00 PM 41.5061 -142.1117 287° West 467 537 38,000  Level FlightAware Transoceanic
Sun 06:17:00 PM 41.5434 -142.2755 287° West 467 537 38,000  Level FlightAware Transoceanic
Sun 06:18:00 PM 41.5805 -142.4395 287° West 467 537 38,000  Level FlightAware Transoceanic
Sun 06:19:00 PM 41.6174 -142.6037 287° West 467 537 38,000  Level FlightAware Transoceanic
Sun 06:20:00 PM 41.6415 -142.6833 287° West 460 529 38,000  Level FlightAware Transoceanic
Sun 06:21:00 PM 41.6774 -142.8460 286° West 460 529 38,000  Level FlightAware Transoceanic
Sun 06:22:00 PM 41.7132 -143.0088 286° West 460 529 38,000  Level FlightAware Transoceanic
Sun 06:23:00 PM 41.7487 -143.1718 286° West 460 529 38,000  Level FlightAware Transoceanic
Sun 06:24:00 PM 41.7840 -143.3350 286° West 460 529 38,000  Level FlightAware Transoceanic
Sun 06:25:00 PM 41.8190 -143.4984 286° West 460 529 38,000  Level FlightAware Transoceanic
Sun 06:26:00 PM 41.8538 -143.6619 286° West 460 529 38,000  Level FlightAware Transoceanic
Sun 06:27:00 PM 41.8884 -143.8256 286° West 460 529 38,000 1,622 Level FlightAware Transoceanic
Sun 06:27:14 PM 41.8833 -143.8000 286° West 464 534 40,000  Climbing Oakland Oceanic (ODAPS)
Sun 06:28:00 PM 41.9228 -143.9895 286° West 460 529 38,000 -1,132 Descending FlightAware Transoceanic
Sun 06:29:00 PM 41.9569 -144.1536 286° West 460 529 38,000  Level FlightAware Transoceanic
Sun 06:30:00 PM 41.9908 -144.3178 285° West 460 529 38,000  Level FlightAware Transoceanic
Sun 06:31:00 PM 42.0244 -144.4823 285° West 460 529 38,000  Level FlightAware Transoceanic
Sun 06:32:00 PM 42.0578 -144.6468 285° West 460 529 38,000 1,000 Level FlightAware Transoceanic
Sun 06:33:00 PM 42.0925 -144.8176 285° West 464 534 40,000 1,000 Climbing FlightAware Transoceanic
Sun 06:34:00 PM 42.1264 -144.9878 285° West 464 534 40,000  Level FlightAware Transoceanic
Sun 06:35:00 PM 42.1602 -145.1583 285° West 464 534 40,000  Level FlightAware Transoceanic
Sun 06:36:00 PM 42.1936 -145.3289 285° West 464 534 40,000  Level FlightAware Transoceanic
Sun 06:37:00 PM 42.2269 -145.4997 285° West 464 534 40,000  Level FlightAware Transoceanic
Sun 06:38:00 PM 42.2598 -145.6706 285° West 464 534 40,000  Level FlightAware Transoceanic
Sun 06:39:00 PM 42.2925 -145.8418 284° West 464 534 40,000  Level FlightAware Transoceanic
Sun 06:40:00 PM 42.3250 -146.0131 284° West 464 534 40,000  Level FlightAware Transoceanic
Sun 06:40:56 PM 42.3500 -146.1333 284° West 476 548 40,000  Level Oakland Oceanic (ODAPS)
Sun 06:41:00 PM 42.3572 -146.1846 284° West 464 534 40,000  Level FlightAware Transoceanic
Sun 06:42:00 PM 42.3891 -146.3563 284° West 464 534 40,000  Level FlightAware Transoceanic
Sun 06:43:00 PM 42.4208 -146.5281 284° West 464 534 40,000  Level FlightAware Transoceanic
Sun 06:44:00 PM 42.4523 -146.7001 284° West 464 534 40,000  Level FlightAware Transoceanic
Sun 06:45:00 PM 42.4835 -146.8723 284° West 464 534 40,000  Level FlightAware Transoceanic
Sun 06:46:00 PM 42.5144 -147.0447 284° West 464 534 40,000  Level FlightAware Transoceanic
Sun 06:47:00 PM 42.5401 -147.1798 283° West 476 548 40,000  Level FlightAware Transoceanic
Sun 06:48:00 PM 42.5709 -147.3548 283° West 476 548 40,000  Level FlightAware Transoceanic
Sun 06:49:00 PM 42.6014 -147.5300 283° West 476 548 40,000  Level FlightAware Transoceanic
Sun 06:50:00 PM 42.6316 -147.7053 283° West 476 548 40,000  Level FlightAware Transoceanic
Sun 06:51:00 PM 42.6616 -147.8808 283° West 476 548 40,000  Level FlightAware Transoceanic
Sun 06:52:00 PM 42.6913 -148.0565 283° West 476 548 40,000  Level FlightAware Transoceanic
Sun 06:53:00 PM 42.7207 -148.2324 283° West 476 548 40,000  Level FlightAware Transoceanic
Sun 06:54:00 PM 42.7498 -148.4084 283° West 476 548 40,000  Level FlightAware Transoceanic
Sun 06:54:44 PM 42.7667 -148.5333 283° West 467 537 40,000  Level Oakland Oceanic (ODAPS)
Sun 06:55:00 PM 42.7787 -148.5846 283° West 476 548 40,000  Level FlightAware Transoceanic
Sun 06:56:00 PM 42.8073 -148.7610 282° West 476 548 40,000  Level FlightAware Transoceanic
Sun 06:57:00 PM 42.8357 -148.9375 282° West 476 548 40,000  Level FlightAware Transoceanic
Sun 06:58:00 PM 42.8637 -149.1142 282° West 476 548 40,000  Level FlightAware Transoceanic
Sun 06:59:00 PM 42.8915 -149.2910 282° West 476 548 40,000  Level FlightAware Transoceanic
Sun 07:00:00 PM 42.9191 -149.4680 282° West 476 548 40,000  Level FlightAware Transoceanic
Sun 07:01:00 PM 42.9498 -149.6731 282° West 467 537 40,000  Level FlightAware Transoceanic
Sun 07:02:00 PM 42.9750 -149.8365 282° West 467 537 40,000  Level FlightAware Transoceanic
Sun 07:03:00 PM 43.0000 -150.0000 289° West 467 537 40,000  Level FlightAware Transoceanic
Sun 07:03:22 PM 43.0000 -150.0000 289° West 458 527 40,000  Level Oakland Oceanic (ODAPS)
Sun 07:04:00 PM 43.0410 -150.1636 289° West 467 537 40,000  Level FlightAware Transoceanic
Sun 07:05:00 PM 43.0818 -150.3274 289° West 467 537 40,000  Level FlightAware Transoceanic
Sun 07:06:00 PM 43.1223 -150.4915 289° West 467 537 40,000  Level FlightAware Transoceanic
Sun 07:07:00 PM 43.1626 -150.6558 289° West 467 537 40,000  Level FlightAware Transoceanic
Sun 07:08:00 PM 43.2027 -150.8202 288° West 467 537 40,000  Level FlightAware Transoceanic
Sun 07:08:36 PM 43.2167 -150.9000 288° West 457 526 40,000  Level Oakland Oceanic (ODAPS)
Sun 07:09:00 PM 43.2425 -150.9849 288° West 458 527 40,000  Level FlightAware Transoceanic
Sun 07:10:00 PM 43.2821 -151.1499 288° West 458 527 40,000  Level FlightAware Transoceanic
Sun 07:11:00 PM 43.3215 -151.3150 288° West 458 527 40,000  Level FlightAware Transoceanic
Sun 07:12:00 PM 43.3606 -151.4803 288° West 458 527 40,000  Level FlightAware Transoceanic
Sun 07:13:00 PM 43.3995 -151.6459 288° West 458 527 40,000  Level FlightAware Transoceanic
Sun 07:14:00 PM 43.4381 -151.8116 288° West 458 527 40,000  Level FlightAware Transoceanic
Sun 07:15:00 PM 43.4880 -152.0476 288° West 457 526 40,000  Level FlightAware Transoceanic
Sun 07:16:00 PM 43.5258 -152.2123 288° West 457 526 40,000  Level FlightAware Transoceanic
Sun 07:17:00 PM 43.5634 -152.3773 287° West 457 526 40,000  Level FlightAware Transoceanic
Sun 07:18:00 PM 43.6007 -152.5425 287° West 457 526 40,000  Level FlightAware Transoceanic
Sun 07:19:00 PM 43.6379 -152.7079 287° West 457 526 40,000  Level FlightAware Transoceanic
Sun 07:20:00 PM 43.6747 -152.8735 287° West 457 526 40,000  Level FlightAware Transoceanic
Sun 07:21:00 PM 43.7113 -153.0393 287° West 457 526 40,000  Level FlightAware Transoceanic
Sun 07:22:00 PM 43.7477 -153.2053 287° West 457 526 40,000  Level FlightAware Transoceanic
Sun 07:22:31 PM 43.7333 -153.1500 287° West 448 516 40,000  Level Oakland Oceanic (ODAPS)
Sun 07:23:00 PM 43.7839 -153.3715 287° West 457 526 40,000  Level FlightAware Transoceanic
Sun 07:24:00 PM 43.8198 -153.5379 287° West 457 526 40,000  Level FlightAware Transoceanic
Sun 07:25:00 PM 43.8555 -153.7045 286° West 457 526 40,000  Level FlightAware Transoceanic
Sun 07:26:00 PM 43.8909 -153.8712 286° West 457 526 40,000  Level FlightAware Transoceanic
Sun 07:27:00 PM 43.9261 -154.0383 286° West 457 526 40,000  Level FlightAware Transoceanic
Sun 07:28:00 PM 43.9440 -154.1334 286° West 448 516 40,000  Level FlightAware Transoceanic
Sun 07:29:00 PM 43.9783 -154.2980 286° West 448 516 40,000  Level FlightAware Transoceanic
Sun 07:30:00 PM 44.0124 -154.4628 286° West 448 516 40,000  Level FlightAware Transoceanic
Sun 07:31:00 PM 44.0462 -154.6277 286° West 448 516 40,000  Level FlightAware Transoceanic
Sun 07:32:00 PM 44.0798 -154.7928 286° West 448 516 40,000  Level FlightAware Transoceanic
Sun 07:33:00 PM 44.1131 -154.9582 286° West 448 516 40,000  Level FlightAware Transoceanic
Sun 07:34:00 PM 44.1462 -155.1237 286° West 448 516 40,000  Level FlightAware Transoceanic
Sun 07:35:00 PM 44.1791 -155.2894 285° West 448 516 40,000  Level FlightAware Transoceanic
Sun 07:36:00 PM 44.2117 -155.4553 285° West 448 516 40,000  Level FlightAware Transoceanic
Sun 07:36:20 PM 44.2167 -155.4167 285° West 443 510 40,000  Level Oakland Oceanic (ODAPS)
Sun 07:37:00 PM 44.2441 -155.6213 285° West 448 516 40,000  Level FlightAware Transoceanic
Sun 07:38:00 PM 44.2762 -155.7876 285° West 448 516 40,000  Level FlightAware Transoceanic
Sun 07:39:00 PM 44.3081 -155.9540 285° West 448 516 40,000  Level FlightAware Transoceanic
Sun 07:40:00 PM 44.3398 -156.1206 285° West 448 516 40,000  Level FlightAware Transoceanic
Sun 07:41:00 PM 44.3712 -156.2874 285° West 448 516 40,000  Level FlightAware Transoceanic
Sun 07:42:00 PM 44.4065 -156.4243 284° West 443 510 40,000  Level FlightAware Transoceanic
Sun 07:43:00 PM 44.4373 -156.5929 284° West 443 510 40,000  Level FlightAware Transoceanic
Sun 07:44:00 PM 44.4678 -156.7616 284° West 443 510 40,000  Level FlightAware Transoceanic
Sun 07:45:00 PM 44.4981 -156.9306 284° West 443 510 40,000  Level FlightAware Transoceanic
Sun 07:46:00 PM 44.5281 -157.0997 284° West 443 510 40,000  Level FlightAware Transoceanic
Sun 07:47:00 PM 44.5579 -157.2689 284° West 443 510 40,000  Level FlightAware Transoceanic
Sun 07:48:00 PM 44.5874 -157.4384 284° West 443 510 40,000  Level FlightAware Transoceanic
Sun 07:49:00 PM 44.6167 -157.6080 284° West 443 510 40,000  Level FlightAware Transoceanic
Sun 07:50:00 PM 44.6457 -157.7778 283° West 443 510 40,000  Level FlightAware Transoceanic
Sun 07:50:13 PM 44.6333 -157.7000 283° West 439 505 40,000  Level Oakland Oceanic (ODAPS)
Sun 07:51:00 PM 44.6745 -157.9477 283° West 443 510 40,000  Level FlightAware Transoceanic
Sun 07:52:00 PM 44.7030 -158.1179 283° West 443 510 40,000  Level FlightAware Transoceanic
Sun 07:53:00 PM 44.7313 -158.2882 283° West 443 510 40,000  Level FlightAware Transoceanic
Sun 07:54:00 PM 44.7593 -158.4586 283° West 443 510 40,000  Level FlightAware Transoceanic
Sun 07:55:00 PM 44.7871 -158.6292 283° West 443 510 40,000  Level FlightAware Transoceanic
Sun 07:56:00 PM 44.7961 -158.6821 283° West 439 505 40,000  Level FlightAware Transoceanic
Sun 07:57:00 PM 44.8224 -158.8463 283° West 439 505 40,000  Level FlightAware Transoceanic
Sun 07:58:00 PM 44.8485 -159.0107 283° West 439 505 40,000  Level FlightAware Transoceanic
Sun 07:59:00 PM 44.8744 -159.1752 282° West 439 505 40,000  Level FlightAware Transoceanic
Sun 08:00:00 PM 44.9000 -159.3399 282° West 439 505 40,000  Level FlightAware Transoceanic
Sun 08:01:00 PM 44.9253 -159.5047 282° West 439 505 40,000  Level FlightAware Transoceanic
Sun 08:02:00 PM 44.9505 -159.6697 282° West 439 505 40,000  Level FlightAware Transoceanic
Sun 08:03:00 PM 44.9753 -159.8348 282° West 439 505 40,000  Level FlightAware Transoceanic
Sun 08:04:00 PM 45.0000 -160.0000 274° West 439 505 40,000  Level FlightAware Transoceanic
Sun 08:04:04 PM 45.0000 -160.0000 274° West 399 459 40,000  Level Oakland Oceanic (ODAPS)
Sun 08:05:00 PM 45.0073 -160.1691 273° West 439 505 40,000  Level FlightAware Transoceanic
Sun 08:06:00 PM 45.0143 -160.3382 273° West 439 505 40,000  Level FlightAware Transoceanic
Sun 08:07:00 PM 45.0211 -160.5074 273° West 439 505 40,000  Level FlightAware Transoceanic
Sun 08:08:00 PM 45.0276 -160.6766 273° West 439 505 40,000  Level FlightAware Transoceanic
Sun 08:09:00 PM 45.0339 -160.8458 273° West 439 505 40,000  Level FlightAware Transoceanic
Sun 08:10:00 PM 45.0399 -161.0151 273° West 399 459 40,000  Level FlightAware Transoceanic
Sun 08:11:00 PM 45.0457 -161.1844 273° West 399 459 40,000  Level FlightAware Transoceanic
Sun 08:12:00 PM 45.0512 -161.3538 273° West 399 459 40,000  Level FlightAware Transoceanic
Sun 08:13:00 PM 45.0564 -161.5231 272° West 399 459 40,000  Level FlightAware Transoceanic
Sun 08:14:00 PM 45.0615 -161.6926 272° West 399 459 40,000  Level FlightAware Transoceanic
Sun 08:15:00 PM 45.0662 -161.8620 272° West 399 459 40,000  Level FlightAware Transoceanic
Sun 08:16:00 PM 45.0708 -162.0314 272° West 399 459 40,000  Level FlightAware Transoceanic
Sun 08:17:00 PM 45.0750 -162.2009 272° West 399 459 40,000  Level FlightAware Transoceanic
Sun 08:18:00 PM 45.0790 -162.3705 272° West 399 459 40,000  Level FlightAware Transoceanic
Sun 08:18:27 PM 45.0833 -162.2833 272° West 421 484 40,000  Level Oakland Oceanic (ODAPS)
Sun 08:19:00 PM 45.0828 -162.5400 272° West 399 459 40,000  Level FlightAware Transoceanic
Sun 08:20:00 PM 45.0863 -162.7096 272° West 399 459 40,000  Level FlightAware Transoceanic
Sun 08:21:00 PM 45.0896 -162.8791 272° West 399 459 40,000  Level FlightAware Transoceanic
Sun 08:22:00 PM 45.0926 -163.0487 271° West 399 459 40,000  Level FlightAware Transoceanic
Sun 08:23:00 PM 45.0954 -163.2184 271° West 399 459 40,000  Level FlightAware Transoceanic
Sun 08:24:00 PM 45.1020 -163.2901 271° West 421 484 40,000  Level FlightAware Transoceanic
Sun 08:25:00 PM 45.1042 -163.4580 271° West 421 484 40,000  Level FlightAware Transoceanic
Sun 08:26:00 PM 45.1062 -163.6259 271° West 421 484 40,000  Level FlightAware Transoceanic
Sun 08:27:00 PM 45.1080 -163.7938 271° West 421 484 40,000  Level FlightAware Transoceanic
Sun 08:28:00 PM 45.1095 -163.9617 271° West 421 484 40,000  Level FlightAware Transoceanic
Sun 08:29:00 PM 45.1107 -164.1296 271° West 421 484 40,000  Level FlightAware Transoceanic
Sun 08:30:00 PM 45.1117 -164.2975 270° West 421 484 40,000  Level FlightAware Transoceanic
Sun 08:31:00 PM 45.1125 -164.4654 270° West 421 484 40,000  Level FlightAware Transoceanic
Sun 08:32:00 PM 45.1130 -164.6333 270° West 421 484 40,000  Level FlightAware Transoceanic
Sun 08:32:02 PM 45.1167 -164.5833 270° West 429 494 40,000  Level Oakland Oceanic (ODAPS)
Sun 08:33:00 PM 45.1133 -164.8012 270° West 421 484 40,000  Level FlightAware Transoceanic
Sun 08:34:00 PM 45.1133 -164.9691 270° West 421 484 40,000  Level FlightAware Transoceanic
Sun 08:35:00 PM 45.1131 -165.1371 270° West 421 484 40,000  Level FlightAware Transoceanic
Sun 08:36:00 PM 45.1127 -165.3050 270° West 421 484 40,000  Level FlightAware Transoceanic
Sun 08:37:00 PM 45.1120 -165.4729 270° West 421 484 40,000  Level FlightAware Transoceanic
Sun 08:38:00 PM 45.1143 -165.6003 269° West 429 494 40,000  Level FlightAware Transoceanic
Sun 08:39:00 PM 45.1130 -165.7697 269° West 429 494 40,000  Level FlightAware Transoceanic
Sun 08:40:00 PM 45.1115 -165.9392 269° West 429 494 40,000  Level FlightAware Transoceanic
Sun 08:41:00 PM 45.1098 -166.1086 269° West 429 494 40,000  Level FlightAware Transoceanic
Sun 08:42:00 PM 45.1077 -166.2781 269° West 429 494 40,000  Level FlightAware Transoceanic
Sun 08:43:00 PM 45.1055 -166.4475 269° West 429 494 40,000  Level FlightAware Transoceanic
Sun 08:44:00 PM 45.1029 -166.6169 269° West 429 494 40,000  Level FlightAware Transoceanic
Sun 08:45:00 PM 45.1002 -166.7863 269° West 429 494 40,000  Level FlightAware Transoceanic
Sun 08:46:00 PM 45.0971 -166.9557 268° West 429 494 40,000  Level FlightAware Transoceanic
Sun 08:47:00 PM 45.0939 -167.1251 268° West 429 494 40,000  Level FlightAware Transoceanic
Sun 08:48:00 PM 45.0904 -167.2944 268° West 429 494 40,000  Level FlightAware Transoceanic
Sun 08:49:00 PM 45.0866 -167.4637 268° West 429 494 40,000  Level FlightAware Transoceanic
Sun 08:50:00 PM 45.0826 -167.6331 268° West 429 494 40,000  Level FlightAware Transoceanic
Sun 08:51:00 PM 45.0783 -167.8023 268° West 429 494 40,000  Level FlightAware Transoceanic
Sun 08:52:00 PM 45.0738 -167.9716 268° West 429 494 40,000  Level FlightAware Transoceanic
Sun 08:53:00 PM 45.0690 -168.1408 268° West 429 494 40,000  Level FlightAware Transoceanic
Sun 08:54:00 PM 45.0640 -168.3100 268° West 429 494 40,000  Level FlightAware Transoceanic
Sun 08:55:00 PM 45.0587 -168.4792 267° West 429 494 40,000  Level FlightAware Transoceanic
Sun 08:56:00 PM 45.0532 -168.6483 267° West 429 494 40,000  Level FlightAware Transoceanic
Sun 08:57:00 PM 45.0474 -168.8174 267° West 429 494 40,000  Level FlightAware Transoceanic
Sun 08:58:00 PM 45.0414 -168.9864 267° West 429 494 40,000  Level FlightAware Transoceanic
Sun 08:59:00 PM 45.0351 -169.1555 267° West 429 494 40,000  Level FlightAware Transoceanic
Sun 08:59:57 PM 45.0333 -169.2000 267° West 431 496 40,000  Level Oakland Oceanic (ODAPS)
Sun 09:00:00 PM 45.0286 -169.3245 267° West 429 494 40,000  Level FlightAware Transoceanic
Sun 09:01:00 PM 45.0218 -169.4934 267° West 429 494 40,000  Level FlightAware Transoceanic
Sun 09:02:00 PM 45.0148 -169.6623 267° West 429 494 40,000  Level FlightAware Transoceanic
Sun 09:03:00 PM 45.0075 -169.8312 266° West 429 494 40,000  Level FlightAware Transoceanic
Sun 09:03:00 PM 45.0333 -169.2000 267° West 431 496 40,000  Level Oakland Oceanic (ODAPS)
Sun 09:04:00 PM 45.0000 -170.0000 258° West 429 494 40,000  Level FlightAware Transoceanic
Sun 09:05:00 PM 44.9752 -170.1637 258° West 429 494 40,000  Level FlightAware Transoceanic
Sun 09:05:15 PM 44.9667 -170.1667 258° West 427 491 40,000  Level Oakland Oceanic (ODAPS)
Sun 09:06:00 PM 44.9502 -170.3273 258° West 431 496 40,000  Level FlightAware Transoceanic
Sun 09:07:00 PM 44.9250 -170.4908 258° West 431 496 40,000  Level FlightAware Transoceanic
Sun 09:08:00 PM 44.8995 -170.6541 258° West 431 496 40,000  Level FlightAware Transoceanic
Sun 09:09:00 PM 44.8738 -170.8172 257° West 431 496 40,000  Level FlightAware Transoceanic
Sun 09:10:00 PM 44.8478 -170.9802 257° West 431 496 40,000  Level FlightAware Transoceanic
Sun 09:11:00 PM 44.8139 -171.1456 257° West 427 491 40,000  Level FlightAware Transoceanic
Sun 09:12:00 PM 44.7876 -171.3083 257° West 427 491 40,000  Level FlightAware Transoceanic
Sun 09:13:00 PM 44.7611 -171.4708 257° West 427 491 40,000  Level FlightAware Transoceanic
Sun 09:13:27 PM 44.7667 -171.5000 257° West 428 493 40,000  Level Oakland Oceanic (ODAPS)
Sun 09:14:00 PM 44.7344 -171.6331 257° West 427 491 40,000  Level FlightAware Transoceanic
Sun 09:15:00 PM 44.7074 -171.7953 257° West 427 491 40,000  Level FlightAware Transoceanic
Sun 09:16:00 PM 44.6802 -171.9574 257° West 427 491 40,000  Level FlightAware Transoceanic
Sun 09:16:40 PM 44.6667 -172.0333 257° West 429 494 40,000  Level Oakland Oceanic (ODAPS)
Sun 09:17:00 PM 44.6528 -172.1192 257° West 427 491 40,000  Level FlightAware Transoceanic
Sun 09:18:00 PM 44.6251 -172.2810 256° West 427 491 40,000  Level FlightAware Transoceanic
Sun 09:19:00 PM 44.6020 -172.4686 256° West 428 493 40,000  Level FlightAware Transoceanic
Sun 09:20:00 PM 44.5737 -172.6295 256° West 428 493 40,000  Level FlightAware Transoceanic
Sun 09:21:00 PM 44.5453 -172.7902 256° West 428 493 40,000  Level FlightAware Transoceanic
Sun 09:22:00 PM 44.5166 -172.9508 256° West 428 493 40,000  Level FlightAware Transoceanic
Sun 09:23:00 PM 44.4711 -173.1525 256° West 429 494 40,000  Level FlightAware Transoceanic
Sun 09:24:00 PM 44.4423 -173.3117 256° West 429 494 40,000  Level FlightAware Transoceanic
Sun 09:25:00 PM 44.4133 -173.4708 256° West 429 494 40,000  Level FlightAware Transoceanic
Sun 09:26:00 PM 44.3840 -173.6297 255° West 429 494 40,000  Level FlightAware Transoceanic
Sun 09:27:00 PM 44.3545 -173.7885 255° West 429 494 40,000  Level FlightAware Transoceanic
Sun 09:27:17 PM 44.3667 -173.7500 255° West 429 494 40,000  Level Oakland Oceanic (ODAPS)
Sun 09:28:00 PM 44.3248 -173.9471 255° West 429 494 40,000  Level FlightAware Transoceanic
Sun 09:29:00 PM 44.2949 -174.1056 255° West 429 494 40,000  Level FlightAware Transoceanic
Sun 09:30:00 PM 44.2648 -174.2639 255° West 429 494 40,000  Level FlightAware Transoceanic
Sun 09:31:00 PM 44.2344 -174.4220 255° West 429 494 40,000  Level FlightAware Transoceanic
Sun 09:32:00 PM 44.2038 -174.5800 255° West 429 494 40,000  Level FlightAware Transoceanic
Sun 09:33:00 PM 44.1836 -174.7053 255° West 429 494 40,000  Level FlightAware Transoceanic
Sun 09:34:00 PM 44.1523 -174.8640 255° West 429 494 40,000  Level FlightAware Transoceanic
Sun 09:35:00 PM 44.1208 -175.0224 254° West 429 494 40,000  Level FlightAware Transoceanic
Sun 09:36:00 PM 44.0891 -175.1807 254° West 429 494 40,000  Level FlightAware Transoceanic
Sun 09:37:00 PM 44.0572 -175.3389 254° West 429 494 40,000  Level FlightAware Transoceanic
Sun 09:38:00 PM 44.0250 -175.4968 254° West 429 494 40,000  Level FlightAware Transoceanic
Sun 09:39:00 PM 43.9927 -175.6546 254° West 429 494 40,000  Level FlightAware Transoceanic
Sun 09:40:00 PM 43.9601 -175.8122 254° West 429 494 40,000  Level FlightAware Transoceanic
Sun 09:41:00 PM 43.9273 -175.9697 254° West 429 494 40,000  Level FlightAware Transoceanic
Sun 09:41:12 PM 43.9333 -175.9667 254° West 434 499 40,000  Level Oakland Oceanic (ODAPS)
Sun 09:42:00 PM 43.8942 -176.1269 254° West 429 494 40,000  Level FlightAware Transoceanic
Sun 09:43:00 PM 43.8610 -176.2840 254° West 429 494 40,000  Level FlightAware Transoceanic
Sun 09:44:00 PM 43.8275 -176.4409 253° West 429 494 40,000  Level FlightAware Transoceanic
Sun 09:45:00 PM 43.7939 -176.5977 253° West 429 494 40,000  Level FlightAware Transoceanic
Sun 09:46:00 PM 43.7600 -176.7543 253° West 429 494 40,000  Level FlightAware Transoceanic
Sun 09:47:00 PM 43.7306 -176.9084 253° West 434 499 40,000  Level FlightAware Transoceanic
Sun 09:48:00 PM 43.6961 -177.0647 253° West 434 499 40,000  Level FlightAware Transoceanic
Sun 09:49:00 PM 43.6613 -177.2209 253° West 434 499 40,000  Level FlightAware Transoceanic
Sun 09:50:00 PM 43.6264 -177.3769 253° West 434 499 40,000  Level FlightAware Transoceanic
Sun 09:51:00 PM 43.5912 -177.5326 253° West 434 499 40,000  Level FlightAware Transoceanic
Sun 09:52:00 PM 43.5558 -177.6882 253° West 434 499 40,000  Level FlightAware Transoceanic
Sun 09:53:00 PM 43.5202 -177.8437 252° West 434 499 40,000  Level FlightAware Transoceanic
Sun 09:54:00 PM 43.4844 -177.9989 252° West 434 499 40,000  Level FlightAware Transoceanic
Sun 09:55:00 PM 43.4484 -178.1540 252° West 434 499 40,000 938 Level FlightAware Transoceanic
Sun 09:55:04 PM 43.4500 -178.1500 252° West 435 501 41,000  Climbing Oakland Oceanic (ODAPS)
Sun 09:56:00 PM 43.4122 -178.3088 252° West 434 499 40,000 -517 Descending FlightAware Transoceanic
Sun 09:57:00 PM 43.3757 -178.4635 252° West 434 499 40,000  Level FlightAware Transoceanic
Sun 09:58:00 PM 43.3391 -178.6180 252° West 434 499 40,000  Level FlightAware Transoceanic
Sun 09:59:00 PM 43.3022 -178.7723 252° West 434 499 40,000  Level FlightAware Transoceanic
Sun 10:00:00 PM 43.2652 -178.9264 252° West 434 499 40,000 500 Level FlightAware Transoceanic
Sun 10:01:00 PM 43.2287 -179.0784 252° West 435 501 41,000 500 Climbing FlightAware Transoceanic
Sun 10:02:00 PM 43.1911 -179.2325 251° West 435 501 41,000  Level FlightAware Transoceanic
Sun 10:03:00 PM 43.1533 -179.3864 251° West 435 501 41,000  Level FlightAware Transoceanic
Sun 10:04:00 PM 43.1153 -179.5401 251° West 435 501 41,000  Level FlightAware Transoceanic
Sun 10:05:00 PM 43.0771 -179.6936 251° West 435 501 41,000  Level FlightAware Transoceanic
Sun 10:06:00 PM 43.0386 -179.8469 251° West 435 501 41,000  Level FlightAware Transoceanic
Sun 10:06:50 PM 43.0000 180.0000 252° West 429 494 41,000  Level Oakland Oceanic (ODAPS)
Sun 10:07:00 PM 43.0000 -180.0000 252° West 435 501 41,000  Level FlightAware Transoceanic
Sun 10:08:00 PM 42.9624 179.8463 251° West 435 501 41,000  Level FlightAware Transoceanic
Sun 10:08:58 PM 42.9167 179.6833 251° West 426 490 41,000  Level Oakland Oceanic (ODAPS)
Sun 10:09:00 PM 42.9245 179.6929 251° West 435 501 41,000  Level FlightAware Transoceanic
Sun 10:10:00 PM 42.8865 179.5396 251° West 435 501 41,000  Level FlightAware Transoceanic
Sun 10:11:00 PM 42.8482 179.3865 251° West 435 501 41,000  Level FlightAware Transoceanic
Sun 10:12:00 PM 42.8098 179.2336 251° West 435 501 41,000  Level FlightAware Transoceanic
Sun 10:13:00 PM 42.7676 179.0672 251° West 429 494 41,000  Level FlightAware Transoceanic
Sun 10:14:00 PM 42.7282 178.9124 251° West 429 494 41,000  Level FlightAware Transoceanic
Sun 10:15:00 PM 42.6860 178.7675 251° West 426 490 41,000  Level FlightAware Transoceanic
Sun 10:16:00 PM 42.6468 178.6155 251° West 426 490 41,000  Level FlightAware Transoceanic
Sun 10:17:00 PM 42.6075 178.4637 251° West 426 490 41,000  Level FlightAware Transoceanic
Sun 10:18:00 PM 42.5679 178.3121 250° West 426 490 41,000  Level FlightAware Transoceanic
Sun 10:19:00 PM 42.5282 178.1607 250° West 426 490 41,000  Level FlightAware Transoceanic
Sun 10:20:00 PM 42.4882 178.0095 250° West 426 490 41,000  Level FlightAware Transoceanic
Sun 10:21:00 PM 42.4481 177.8585 250° West 426 490 41,000  Level FlightAware Transoceanic
Sun 10:22:00 PM 42.4077 177.7076 250° West 426 490 41,000  Level FlightAware Transoceanic
Sun 10:22:44 PM 42.3833 177.6000 250° West 419 482 41,000  Level Oakland Oceanic (ODAPS)
Sun 10:23:00 PM 42.3671 177.5570 250° West 426 490 41,000  Level FlightAware Transoceanic
Sun 10:24:00 PM 42.3264 177.4066 250° West 426 490 41,000  Level FlightAware Transoceanic
Sun 10:25:00 PM 42.2855 177.2563 250° West 426 490 41,000  Level FlightAware Transoceanic
Sun 10:26:00 PM 42.2443 177.1063 250° West 426 490 41,000  Level FlightAware Transoceanic
Sun 10:27:00 PM 42.2030 176.9565 250° West 426 490 41,000  Level FlightAware Transoceanic
Sun 10:28:00 PM 42.1615 176.8068 249° West 426 490 41,000  Level FlightAware Transoceanic
Sun 10:29:00 PM 42.1031 176.5838 249° West 419 482 41,000  Level FlightAware Transoceanic
Sun 10:30:00 PM 42.0624 176.4394 249° West 419 482 41,000  Level FlightAware Transoceanic
Sun 10:31:00 PM 42.0214 176.2951 249° West 419 482 41,000  Level FlightAware Transoceanic
Sun 10:32:00 PM 41.9803 176.1510 249° West 419 482 41,000  Level FlightAware Transoceanic
Sun 10:33:00 PM 41.9390 176.0072 249° West 419 482 41,000  Level FlightAware Transoceanic
Sun 10:34:00 PM 41.8975 175.8635 249° West 419 482 41,000  Level FlightAware Transoceanic
Sun 10:35:00 PM 41.8559 175.7200 249° West 419 482 41,000  Level FlightAware Transoceanic
Sun 10:36:00 PM 41.8140 175.5767 249° West 419 482 41,000  Level FlightAware Transoceanic
Sun 10:36:36 PM 41.8333 175.6167 248° West 404 465 41,000  Level Oakland Oceanic (ODAPS)
Sun 10:37:00 PM 41.7720 175.4335 248° West 419 482 41,000  Level FlightAware Transoceanic
Sun 10:38:00 PM 41.7298 175.2906 248° West 419 482 41,000  Level FlightAware Transoceanic
Sun 10:39:00 PM 41.6875 175.1478 248° West 419 482 41,000  Level FlightAware Transoceanic
Sun 10:40:00 PM 41.6449 175.0053 248° West 419 482 41,000  Level FlightAware Transoceanic
Sun 10:41:00 PM 41.6022 174.8629 248° West 419 482 41,000  Level FlightAware Transoceanic
Sun 10:42:00 PM 41.5884 174.7953 248° West 404 465 41,000  Level FlightAware Transoceanic
Sun 10:43:00 PM 41.5470 174.6590 248° West 404 465 41,000  Level FlightAware Transoceanic
Sun 10:44:00 PM 41.5054 174.5229 248° West 404 465 41,000  Level FlightAware Transoceanic
Sun 10:45:00 PM 41.4637 174.3869 248° West 404 465 41,000  Level FlightAware Transoceanic
Sun 10:46:00 PM 41.4218 174.2512 248° West 404 465 41,000  Level FlightAware Transoceanic
Sun 10:47:00 PM 41.3798 174.1156 247° West 404 465 41,000  Level FlightAware Transoceanic
Sun 10:48:00 PM 41.3376 173.9802 247° West 404 465 41,000  Level FlightAware Transoceanic
Sun 10:49:00 PM 41.2952 173.8449 247° West 404 465 41,000  Level FlightAware Transoceanic
Sun 10:50:00 PM 41.2527 173.7099 247° West 404 465 41,000  Level FlightAware Transoceanic
Sun 10:50:30 PM 41.2500 173.7000 247° West 414 476 41,000  Level Oakland Oceanic (ODAPS)
Sun 10:51:00 PM 41.2100 173.5750 247° West 404 465 41,000  Level FlightAware Transoceanic
Sun 10:52:00 PM 41.1672 173.4403 247° West 404 465 41,000  Level FlightAware Transoceanic
Sun 10:53:00 PM 41.1242 173.3057 247° West 404 465 41,000  Level FlightAware Transoceanic
Sun 10:54:00 PM 41.0811 173.1714 247° West 404 465 41,000  Level FlightAware Transoceanic
Sun 10:55:00 PM 41.0378 173.0372 247° West 404 465 41,000  Level FlightAware Transoceanic
Sun 10:56:00 PM 40.9825 172.8658 247° West 414 476 41,000  Level FlightAware Transoceanic
Sun 10:57:00 PM 40.9373 172.7274 247° West 414 476 41,000  Level FlightAware Transoceanic
Sun 10:58:00 PM 40.8920 172.5893 246° West 414 476 41,000  Level FlightAware Transoceanic
Sun 10:59:00 PM 40.8465 172.4513 246° West 414 476 41,000  Level FlightAware Transoceanic
Sun 11:00:00 PM 40.8008 172.3135 246° West 414 476 41,000  Level FlightAware Transoceanic
Sun 11:01:00 PM 40.7550 172.1759 246° West 414 476 41,000  Level FlightAware Transoceanic
Sun 11:02:00 PM 40.7090 172.0385 246° West 414 476 41,000  Level FlightAware Transoceanic
Sun 11:03:00 PM 40.6629 171.9012 246° West 414 476 41,000  Level FlightAware Transoceanic
Sun 11:04:00 PM 40.6166 171.7642 246° West 414 476 41,000  Level FlightAware Transoceanic
Sun 11:04:21 PM 40.6000 171.7167 246° West 428 493 41,000  Level Oakland Oceanic (ODAPS)
Sun 11:05:00 PM 40.5701 171.6273 246° West 414 476 41,000  Level FlightAware Transoceanic
Sun 11:06:00 PM 40.5235 171.4907 246° West 414 476 41,000  Level FlightAware Transoceanic
Sun 11:07:00 PM 40.4767 171.3542 246° West 414 476 41,000  Level FlightAware Transoceanic
Sun 11:08:00 PM 40.4297 171.2179 246° West 414 476 41,000  Level FlightAware Transoceanic
Sun 11:09:00 PM 40.3826 171.0818 246° West 414 476 41,000  Level FlightAware Transoceanic
Sun 11:10:00 PM 40.3032 170.8545 245° Southwest 428 493 41,000  Level FlightAware Transoceanic
Sun 11:11:00 PM 40.2531 170.7116 245° Southwest 428 493 41,000  Level FlightAware Transoceanic
Sun 11:12:00 PM 40.2028 170.5688 245° Southwest 428 493 41,000  Level FlightAware Transoceanic
Sun 11:13:00 PM 40.1524 170.4263 245° Southwest 428 493 41,000  Level FlightAware Transoceanic
Sun 11:14:00 PM 40.1017 170.2840 245° Southwest 428 493 41,000  Level FlightAware Transoceanic
Sun 11:15:00 PM 40.0510 170.1419 245° Southwest 428 493 41,000  Level FlightAware Transoceanic
Sun 11:16:00 PM 40.0000 170.0000 259° West 428 493 41,000  Level FlightAware Transoceanic
Sun 11:16:23 PM 40.0000 170.0000 259° West 414 476 41,000  Level Oakland Oceanic (ODAPS)
Sun 11:17:00 PM 39.9776 169.8534 259° West 428 493 41,000  Level FlightAware Transoceanic
Sun 11:18:00 PM 39.9549 169.7068 259° West 428 493 41,000  Level FlightAware Transoceanic
Sun 11:18:13 PM 39.9500 169.7167 259° West 416 479 41,000  Level Oakland Oceanic (ODAPS)
Sun 11:19:00 PM 39.9322 169.5604 258° West 428 493 41,000  Level FlightAware Transoceanic
Sun 11:20:00 PM 39.9092 169.4140 258° West 428 493 41,000  Level FlightAware Transoceanic
Sun 11:21:00 PM 39.8860 169.2678 258° West 428 493 41,000  Level FlightAware Transoceanic
Sun 11:22:00 PM 39.8626 169.1216 258° West 414 476 41,000  Level FlightAware Transoceanic
Sun 11:23:00 PM 39.8391 168.9756 258° West 414 476 41,000  Level FlightAware Transoceanic
Sun 11:24:00 PM 39.8088 168.8256 258° West 416 479 41,000  Level FlightAware Transoceanic
Sun 11:25:00 PM 39.7846 168.6774 258° West 416 479 41,000  Level FlightAware Transoceanic
Sun 11:26:00 PM 39.7602 168.5294 258° West 416 479 41,000  Level FlightAware Transoceanic
Sun 11:27:00 PM 39.7357 168.3814 258° West 416 479 41,000  Level FlightAware Transoceanic
Sun 11:28:00 PM 39.7109 168.2336 258° West 416 479 41,000  Level FlightAware Transoceanic
Sun 11:29:00 PM 39.6860 168.0858 258° West 416 479 41,000  Level FlightAware Transoceanic
Sun 11:30:00 PM 39.6608 167.9382 257° West 416 479 41,000  Level FlightAware Transoceanic
Sun 11:31:00 PM 39.6355 167.7907 257° West 416 479 41,000  Level FlightAware Transoceanic
Sun 11:32:00 PM 39.6100 167.6433 257° West 416 479 41,000  Level FlightAware Transoceanic
Sun 11:32:04 PM 39.6333 167.7500 257° West 404 465 41,000  Level Oakland Oceanic (ODAPS)
Sun 11:33:00 PM 39.5843 167.4960 257° West 416 479 41,000  Level FlightAware Transoceanic
Sun 11:34:00 PM 39.5584 167.3488 257° West 416 479 41,000  Level FlightAware Transoceanic
Sun 11:35:00 PM 39.5324 167.2017 257° West 416 479 41,000  Level FlightAware Transoceanic
Sun 11:36:00 PM 39.5061 167.0547 257° West 416 479 41,000  Level FlightAware Transoceanic
Sun 11:37:00 PM 39.4797 166.9079 257° West 416 479 41,000  Level FlightAware Transoceanic
Sun 11:38:00 PM 39.4832 166.9031 257° West 404 465 41,000  Level FlightAware Transoceanic
Sun 11:39:00 PM 39.4576 166.7623 257° West 404 465 41,000  Level FlightAware Transoceanic
Sun 11:40:00 PM 39.4318 166.6216 257° West 404 465 41,000  Level FlightAware Transoceanic
Sun 11:41:00 PM 39.4058 166.4810 257° West 404 465 41,000  Level FlightAware Transoceanic
Sun 11:42:00 PM 39.3797 166.3406 256° West 404 465 41,000  Level FlightAware Transoceanic
Sun 11:43:00 PM 39.3534 166.2002 256° West 404 465 41,000  Level FlightAware Transoceanic
Sun 11:44:00 PM 39.3269 166.0599 256° West 404 465 41,000  Level FlightAware Transoceanic
Sun 11:45:00 PM 39.3003 165.9198 256° West 404 465 41,000  Level FlightAware Transoceanic
Sun 11:45:59 PM 39.2833 165.8000 256° West 409 471 41,000  Level Oakland Oceanic (ODAPS)
Sun 11:46:00 PM 39.2734 165.7797 256° West 404 465 41,000  Level FlightAware Transoceanic
Sun 11:47:00 PM 39.2465 165.6398 256° West 404 465 41,000  Level FlightAware Transoceanic
Sun 11:48:00 PM 39.2193 165.4999 256° West 404 465 41,000  Level FlightAware Transoceanic
Sun 11:49:00 PM 39.1920 165.3602 256° West 404 465 41,000  Level FlightAware Transoceanic
Sun 11:50:00 PM 39.1646 165.2206 256° West 404 465 41,000  Level FlightAware Transoceanic
Sun 11:51:00 PM 39.1369 165.0811 256° West 404 465 41,000  Level FlightAware Transoceanic
Sun 11:52:00 PM 39.1136 164.9385 255° West 409 471 41,000  Level FlightAware Transoceanic
Sun 11:53:00 PM 39.0847 164.7953 255° West 409 471 41,000  Level FlightAware Transoceanic
Sun 11:54:00 PM 39.0556 164.6522 255° West 409 471 41,000  Level FlightAware Transoceanic
Sun 11:55:00 PM 39.0263 164.5093 255° West 409 471 41,000  Level FlightAware Transoceanic
Sun 11:56:00 PM 38.9969 164.3664 255° West 409 471 41,000  Level FlightAware Transoceanic
Sun 11:57:00 PM 38.9673 164.2237 255° West 409 471 41,000  Level FlightAware Transoceanic
Sun 11:58:00 PM 38.9375 164.0811 255° West 409 471 41,000  Level FlightAware Transoceanic
Sun 11:59:00 PM 38.9076 163.9387 255° West 409 471 41,000  Level FlightAware Transoceanic
Mon 12:00:00 AM 38.8775 163.7963 255° West 409 471 41,000  Level FlightAware Transoceanic
Mon 12:01:00 AM 38.8472 163.6541 255° West 409 471 41,000  Level FlightAware Transoceanic
Mon 12:02:00 AM 38.8167 163.5120 255° West 409 471 41,000  Level FlightAware Transoceanic
Mon 12:03:00 AM 38.7861 163.3700 254° West 409 471 41,000  Level FlightAware Transoceanic
Mon 12:04:00 AM 38.7553 163.2281 254° West 409 471 41,000  Level FlightAware Transoceanic
Mon 12:05:00 AM 38.7243 163.0864 254° West 409 471 41,000  Level FlightAware Transoceanic
Mon 12:06:00 AM 38.6931 162.9448 254° West 409 471 41,000  Level FlightAware Transoceanic
Mon 12:07:00 AM 38.6618 162.8033 254° West 409 471 41,000  Level FlightAware Transoceanic
Mon 12:08:00 AM 38.6303 162.6619 254° West 409 471 41,000  Level FlightAware Transoceanic
Mon 12:09:00 AM 38.5986 162.5207 254° West 409 471 41,000  Level FlightAware Transoceanic
Mon 12:10:00 AM 38.5668 162.3795 254° West 409 471 41,000  Level FlightAware Transoceanic
Mon 12:11:00 AM 38.5348 162.2386 254° West 409 471 41,000  Level FlightAware Transoceanic
Mon 12:12:00 AM 38.5026 162.0977 254° West 409 471 41,000  Level FlightAware Transoceanic
Mon 12:13:00 AM 38.4703 161.9569 254° West 409 471 41,000  Level FlightAware Transoceanic
Mon 12:14:00 AM 38.4378 161.8163 254° West 409 471 41,000  Level FlightAware Transoceanic
Mon 12:15:00 AM 38.4051 161.6758 253° West 409 471 41,000  Level FlightAware Transoceanic
Mon 12:16:00 AM 38.3722 161.5355 253° West 409 471 41,000  Level FlightAware Transoceanic
Mon 12:17:00 AM 38.3392 161.3952 253° West 409 471 41,000  Level FlightAware Transoceanic
Mon 12:18:00 AM 38.3061 161.2551 253° West 409 471 41,000  Level FlightAware Transoceanic
Mon 12:19:00 AM 38.2727 161.1151 253° West 409 471 41,000  Level FlightAware Transoceanic
Mon 12:20:00 AM 38.2392 160.9753 253° West 409 471 41,000  Level FlightAware Transoceanic
Mon 12:21:00 AM 38.2055 160.8356 253° West 409 471 41,000  Level FlightAware Transoceanic
Mon 12:22:00 AM 38.1717 160.6960 253° West 409 471 41,000  Level FlightAware Transoceanic
Mon 12:23:00 AM 38.1377 160.5565 253° West 409 471 41,000  Level FlightAware Transoceanic
Mon 12:24:00 AM 38.1035 160.4172 253° West 409 471 41,000  Level FlightAware Transoceanic
Mon 12:25:00 AM 38.0692 160.2780 253° West 409 471 41,000  Level FlightAware Transoceanic
Mon 12:26:00 AM 38.0347 160.1389 252° West 409 471 41,000  Level FlightAware Transoceanic
Mon 12:27:00 AM 38.0000 160.0000 266° West 409 471 41,000  Level FlightAware Transoceanic
Mon 12:28:00 AM 37.9918 159.8575 266° West 409 471 41,000  Level FlightAware Transoceanic
Mon 12:29:00 AM 37.9835 159.7151 266° West 409 471 41,000  Level FlightAware Transoceanic
Mon 12:30:00 AM 37.9750 159.5727 266° West 409 471 41,000  Level FlightAware Transoceanic
Mon 12:31:00 AM 37.9663 159.4303 266° West 409 471 41,000  Level FlightAware Transoceanic
Mon 12:32:00 AM 37.9574 159.2880 265° West 409 471 41,000  Level FlightAware Transoceanic
Mon 12:33:00 AM 37.9484 159.1457 265° West 409 471 41,000  Level FlightAware Transoceanic
Mon 12:34:00 AM 37.9392 159.0034 265° West 409 471 41,000  Level FlightAware Transoceanic
Mon 12:35:00 AM 37.9299 158.8612 265° West 409 471 41,000  Level FlightAware Transoceanic
Mon 12:36:00 AM 37.9203 158.7190 265° West 409 471 41,000  Level FlightAware Transoceanic
Mon 12:37:00 AM 37.9106 158.5769 265° West 409 471 41,000  Level FlightAware Transoceanic
Mon 12:38:00 AM 37.9007 158.4347 265° West 409 471 41,000  Level FlightAware Transoceanic
Mon 12:39:00 AM 37.8907 158.2927 265° West 409 471 41,000  Level FlightAware Transoceanic
Mon 12:40:00 AM 37.8804 158.1506 265° West 409 471 41,000  Level FlightAware Transoceanic
Mon 12:41:00 AM 37.8700 158.0086 265° West 409 471 41,000  Level FlightAware Transoceanic
Mon 12:42:00 AM 37.8595 157.8667 265° West 409 471 41,000  Level FlightAware Transoceanic
Mon 12:43:00 AM 37.8488 157.7247 264° West 409 471 41,000  Level FlightAware Transoceanic
Mon 12:44:00 AM 37.8378 157.5829 264° West 409 471 41,000  Level FlightAware Transoceanic
Mon 12:45:00 AM 37.8268 157.4410 264° West 409 471 41,000  Level FlightAware Transoceanic
Mon 12:46:00 AM 37.8155 157.2993 264° West 409 471 41,000  Level FlightAware Transoceanic
Mon 12:47:00 AM 37.8041 157.1575 264° West 409 471 41,000  Level FlightAware Transoceanic
Mon 12:48:00 AM 37.7925 157.0158 264° West 409 471 41,000  Level FlightAware Transoceanic
Mon 12:49:00 AM 37.7808 156.8741 264° West 409 471 41,000  Level FlightAware Transoceanic
Mon 12:50:00 AM 37.7688 156.7325 264° West 409 471 41,000  Level FlightAware Transoceanic
Mon 12:51:00 AM 37.7567 156.5910 264° West 409 471 41,000  Level FlightAware Transoceanic
Mon 12:52:00 AM 37.7445 156.4494 264° West 409 471 41,000  Level FlightAware Transoceanic
Mon 12:53:00 AM 37.7321 156.3080 264° West 409 471 41,000  Level FlightAware Transoceanic
Mon 12:54:00 AM 37.7195 156.1665 264° West 409 471 41,000  Level FlightAware Transoceanic
Mon 12:55:00 AM 37.7067 156.0252 263° West 409 471 41,000  Level FlightAware Transoceanic
Mon 12:56:00 AM 37.6937 155.8838 263° West 409 471 41,000  Level FlightAware Transoceanic
Mon 12:57:00 AM 37.6806 155.7426 263° West 409 471 41,000  Level FlightAware Transoceanic
Mon 12:58:00 AM 37.6674 155.6013 263° West 409 471 41,000  Level FlightAware Transoceanic
Mon 12:59:00 AM 37.6539 155.4601 263° West 409 471 41,000  Level FlightAware Transoceanic
Mon 01:00:00 AM 37.6403 155.3190 263° West 409 471 41,000  Level FlightAware Transoceanic
Mon 01:01:00 AM 37.6265 155.1779 263° West 409 471 41,000  Level FlightAware Transoceanic
Mon 01:02:00 AM 37.6126 155.0369 263° West 409 471 41,000  Level FlightAware Transoceanic
Mon 01:03:00 AM 37.5985 154.8960 263° West 409 471 41,000  Level FlightAware Transoceanic
Mon 01:04:00 AM 37.5842 154.7550 263° West 409 471 41,000  Level FlightAware Transoceanic
Mon 01:05:00 AM 37.5697 154.6142 263° West 409 471 41,000  Level FlightAware Transoceanic
Mon 01:06:00 AM 37.5551 154.4734 262° West 409 471 41,000  Level FlightAware Transoceanic
Mon 01:07:00 AM 37.5403 154.3326 262° West 409 471 41,000  Level FlightAware Transoceanic
Mon 01:08:00 AM 37.5254 154.1919 262° West 409 471 41,000  Level FlightAware Transoceanic
Mon 01:09:00 AM 37.5103 154.0513 262° West 409 471 41,000  Level FlightAware Transoceanic
Mon 01:10:00 AM 37.4950 153.9107 262° West 409 471 41,000  Level FlightAware Transoceanic
Mon 01:11:00 AM 37.4795 153.7702 262° West 409 471 41,000  Level FlightAware Transoceanic
Mon 01:12:00 AM 37.4639 153.6297 262° West 409 471 41,000  Level FlightAware Transoceanic
Mon 01:13:00 AM 37.4481 153.4893 262° West 409 471 41,000  Level FlightAware Transoceanic
Mon 01:14:00 AM 37.4322 153.3490 262° West 409 471 41,000  Level FlightAware Transoceanic
Mon 01:15:00 AM 37.4160 153.2087 262° West 409 471 41,000  Level FlightAware Transoceanic
Mon 01:16:00 AM 37.3998 153.0685 262° West 409 471 41,000  Level FlightAware Transoceanic
Mon 01:17:00 AM 37.3833 152.9283 262° West 409 471 41,000  Level FlightAware Transoceanic
Mon 01:18:00 AM 37.3667 152.7882 261° West 409 471 41,000  Level FlightAware Transoceanic
Mon 01:19:00 AM 37.3499 152.6482 261° West 409 471 41,000  Level FlightAware Transoceanic
Mon 01:20:00 AM 37.3330 152.5082 261° West 409 471 41,000  Level FlightAware Transoceanic
Mon 01:21:00 AM 37.3159 152.3683 261° West 409 471 41,000  Level FlightAware Transoceanic
Mon 01:22:00 AM 37.2986 152.2284 261° West 409 471 41,000  Level FlightAware Transoceanic
Mon 01:23:00 AM 37.2812 152.0887 261° West 409 471 41,000  Level FlightAware Transoceanic
Mon 01:24:00 AM 37.2636 151.9489 261° West 409 471 41,000  Level FlightAware Transoceanic
Mon 01:25:00 AM 37.2458 151.8093 261° West 409 471 41,000  Level FlightAware Transoceanic
Mon 01:26:00 AM 37.2279 151.6697 261° West 409 471 41,000  Level FlightAware Transoceanic
Mon 01:27:00 AM 37.2098 151.5302 261° West 409 471 41,000  Level FlightAware Transoceanic
Mon 01:28:00 AM 37.1915 151.3907 261° West 409 471 41,000  Level FlightAware Transoceanic
Mon 01:29:00 AM 37.1731 151.2513 261° West 409 471 41,000  Level FlightAware Transoceanic
Mon 01:30:00 AM 37.1545 151.1120 260° West 409 471 41,000  Level FlightAware Transoceanic
Mon 01:31:00 AM 37.1358 150.9728 260° West 409 471 41,000  Level FlightAware Transoceanic
Mon 01:32:00 AM 37.1169 150.8336 260° West 409 471 41,000  Level FlightAware Transoceanic
Mon 01:33:00 AM 37.0978 150.6945 260° West 409 471 41,000  Level FlightAware Transoceanic
Mon 01:34:00 AM 37.0786 150.5554 260° West 409 471 41,000  Level FlightAware Transoceanic
Mon 01:35:00 AM 37.0592 150.4165 260° West 409 471 41,000  Level FlightAware Transoceanic
Mon 01:36:00 AM 37.0396 150.2776 260° West 409 471 41,000  Level FlightAware Transoceanic
Mon 01:37:00 AM 37.0199 150.1387 260° West 409 471 41,000  Level FlightAware Transoceanic
Mon 01:38:00 AM 36.9990 149.9930 260° West  Level FlightAware Approximate
Mon 01:39:00 AM 36.9990 149.9859 265° West  Level FlightAware Approximate
Mon 01:40:00 AM 36.9887 149.8385 265° West  Level FlightAware Approximate
Mon 01:41:00 AM 36.9781 149.6911 265° West  Level FlightAware Approximate
Mon 01:42:00 AM 36.9674 149.5437 265° West  Level FlightAware Approximate
Mon 01:43:00 AM 36.9565 149.3964 265° West  Level FlightAware Approximate
Mon 01:44:00 AM 36.9454 149.2491 265° West  Level FlightAware Approximate
Mon 01:45:00 AM 36.9341 149.1019 265° West  Level FlightAware Approximate
Mon 01:46:00 AM 36.9226 148.9547 264° West  Level FlightAware Approximate
Mon 01:47:00 AM 36.9110 148.8076 264° West  Level FlightAware Approximate
Mon 01:48:00 AM 36.8992 148.6605 264° West  Level FlightAware Approximate
Mon 01:49:00 AM 36.8872 148.5134 264° West  Level FlightAware Approximate
Mon 01:50:00 AM 36.8627 148.3692 255° West  Level FlightAware Approximate
Mon 01:51:00 AM 36.8324 148.2265 255° West  Level FlightAware Approximate
Mon 01:52:00 AM 36.8019 148.0838 255° West  Level FlightAware Approximate
Mon 01:53:00 AM 36.7712 147.9413 255° West  Level FlightAware Approximate
Mon 01:54:00 AM 36.7404 147.7988 255° West  Level FlightAware Approximate
Mon 01:55:00 AM 36.7093 147.6565 255° West  Level FlightAware Approximate
Mon 01:56:00 AM 36.6782 147.5143 255° West  Level FlightAware Approximate
Mon 01:57:00 AM 36.6468 147.3722 255° West  Level FlightAware Approximate
Mon 01:58:00 AM 36.6153 147.2303 255° West  Level FlightAware Approximate
Mon 01:59:00 AM 36.5836 147.0884 254° West  Level FlightAware Approximate
Mon 02:00:00 AM 36.5517 146.9467 254° West  Level FlightAware Approximate
Mon 02:01:00 AM 36.5197 146.8050 254° West  Level FlightAware Approximate
Mon 02:02:00 AM 36.4875 146.6635 254° West  Level FlightAware Approximate
Mon 02:03:00 AM 36.4551 146.5221 254° West  Level FlightAware Approximate
Mon 02:04:00 AM 36.4226 146.3809 254° West  Level FlightAware Approximate
Mon 02:05:00 AM 36.3865 146.2412 248° West  Level FlightAware Approximate
Mon 02:06:00 AM 36.3425 146.1049 248° West  Level FlightAware Approximate
Mon 02:07:00 AM 36.2985 145.9687 248° West  Level FlightAware Approximate
Mon 02:08:00 AM 36.2543 145.8327 248° West  Level FlightAware Approximate
Mon 02:09:00 AM 36.2099 145.6969 248° West  Level FlightAware Approximate
Mon 02:10:00 AM 36.1729 145.5579 253° West  Level FlightAware Approximate
Mon 02:11:00 AM 36.1420 145.4167 259° West  Level FlightAware Approximate
Mon 02:12:00 AM 36.1190 145.2732 259° West  Level FlightAware Approximate
Mon 02:13:00 AM 36.0956 145.1290 259° West  Level FlightAware Approximate
Mon 02:14:00 AM 36.0721 144.9848 259° West  Level FlightAware Approximate
Mon 02:15:00 AM 36.0484 144.8408 259° West  Level FlightAware Approximate
Mon 02:16:00 AM 36.0246 144.6968 258° West  Level FlightAware Approximate
Mon 02:17:00 AM 36.0005 144.5529 258° West  Level FlightAware Approximate
Mon 02:18:00 AM 35.9763 144.4091 258° West  Level FlightAware Approximate
Mon 02:19:00 AM 35.9520 144.2654 258° West  Level FlightAware Approximate
Mon 02:19:41 AM 35.9820 144.5100 258° West 403 464 41,000  Level FlightAware ADS-B
Mon 02:20:00 AM 35.9274 144.1218 258° West  Level FlightAware Approximate
Mon 02:20:23 AM 35.9680 144.4310 258° West 404 465 41,000  Level FlightAware ADS-B
Mon 02:20:57 AM 35.9550 144.3660 256° West 404 465 41,000  Level FlightAware ADS-B
Mon 02:21:35 AM 35.9420 144.2930 258° West 404 465 41,000  Level FlightAware ADS-B
Mon 02:22:11 AM 35.9290 144.2240 257° West 404 465 41,000  Level FlightAware ADS-B
Mon 02:22:47 AM 35.9160 144.1560 257° West 404 465 41,000  Level FlightAware ADS-B
Mon 02:23:23 AM 35.9030 144.0870 257° West 404 465 41,000  Level FlightAware ADS-B
Mon 02:23:51 AM 35.8830 143.9480 260° West 401 461 41,000  Level FlightAware ADS-B
Mon 02:24:30 AM 35.8680 143.8630 258° West 402 463 41,000  Level FlightAware ADS-B
Mon 02:25:06 AM 35.8540 143.7850 258° West 403 464 41,000  Level FlightAware ADS-B
Mon 02:25:39 AM 35.8420 143.7180 258° West 403 464 41,000  Level FlightAware ADS-B
Mon 02:26:15 AM 35.8300 143.6490 258° West 403 464 41,000  Level FlightAware ADS-B
Mon 02:26:49 AM 35.8110 143.5510 257° West 405 466 41,000 -563 Level FlightAware ADS-B
Mon 02:27:19 AM 35.7990 143.4840 258° West 403 464 40,400 -1,833 Descending FlightAware ADS-B
Mon 02:28:01 AM 35.7810 143.3880 257° West 402 463 38,800 -1,568 Descending FlightAware ADS-B
Mon 02:28:47 AM 35.7640 143.2950 257° West 402 463 38,100 -1,800 Descending FlightAware ADS-B
Mon 02:29:31 AM 35.7460 143.1970 257° West 410 472 36,100 -1,481 Descending FlightAware ADS-B
Mon 02:30:08 AM 35.7340 143.1250 258° West 410 472 36,100 -2,471 Level FlightAware ADS-B
Mon 02:30:39 AM 35.7290 143.0270 266° West 620 713 33,300 -2,110 Descending FlightAware ADS-B
Mon 02:31:39 AM 35.7130 142.8910 262° West 431 496 32,900 -467 Descending FlightAware ADS-B
Mon 02:32:09 AM 35.7050 142.8170 262° West 417 480 32,600 -1,091 Descending FlightAware ADS-B
Mon 02:32:45 AM 35.6960 142.7350 262° West 414 476 31,700 -1,859 Descending FlightAware ADS-B
Mon 02:33:20 AM 35.6870 142.6550 262° West 409 471 30,400 -2,182 Descending FlightAware ADS-B
Mon 02:33:51 AM 35.6810 142.5800 264° West 406 467 29,300 -1,704 Descending FlightAware ADS-B
Mon 02:34:41 AM 35.6910 142.4630 276° West 409 471 28,100 -1,333 Descending FlightAware ADS-B
Mon 02:35:21 AM 35.7010 142.3700 278° West 408 470 27,300 -1,333 Descending FlightAware ADS-B
Mon 02:35:53 AM 35.7090 142.2960 278° West 413 475 26,500 -1,059 Descending FlightAware ADS-B
Mon 02:36:29 AM 35.7170 142.2140 277° West 409 471 26,100 -676 Descending FlightAware ADS-B
Mon 02:37:04 AM 35.7260 142.1320 278° West 400 460 25,700 -771 Descending FlightAware ADS-B
Mon 02:37:39 AM 35.7310 142.0530 274° West 395 455 25,200 -1,000 Descending FlightAware ADS-B
Mon 02:38:16 AM 35.7310 141.9740 270° West 395 455 24,500 -1,457 Descending FlightAware ADS-B
Mon 02:38:49 AM 35.7310 141.8970 270° West 394 453 23,500 -2,647 Descending FlightAware ADS-B
Mon 02:39:24 AM 35.7310 141.8180 270° West 402 463 21,500 -3,686 Descending FlightAware ADS-B
Mon 02:39:59 AM 35.7300 141.7360 269° West 416 479 19,200 -3,257 Descending FlightAware ADS-B
Mon 02:40:34 AM 35.7300 141.6530 270° West 405 466 17,700 -2,462 Descending FlightAware ADS-B
Mon 02:41:17 AM 35.7290 141.5590 269° West 389 448 16,000 -2,301 Descending FlightAware ADS-B
Mon 02:41:47 AM 35.7290 141.4960 270° West 373 429 14,900 -2,167 Descending FlightAware ADS-B
Mon 02:42:29 AM 35.7290 141.4160 270° West 354 407 13,400 -2,301 Descending FlightAware ADS-B
Mon 02:43:00 AM 35.7280 141.3440 269° West 349 402 12,100 -2,149 Descending FlightAware ADS-B
Mon 02:43:36 AM 35.7280 141.2760 270° West 341 392 11,000 -1,250 Descending FlightAware ADS-B
Mon 02:44:12 AM 35.7270 141.2080 269° West 312 359 10,600 -627 Descending FlightAware ADS-B
Mon 02:44:43 AM 35.7270 141.1620 270° West 294 338 10,300 -529 Descending FlightAware ADS-B
Mon 02:45:20 AM 35.7260 141.0970 269° West 270 311 10,000 -490 Descending FlightAware ADS-B
Mon 02:45:32 AM 35.7260 141.0780 270° West 270 311 9,900 -621 Descending FlightAware ADS-B
Mon 02:45:49 AM 35.7210 141.0550 255° West 269 310 9,700 -545 Descending FlightAware ADS-B
Mon 02:45:54 AM 35.7180 141.0470 245° Southwest 270 311 9,700 -800 Level FlightAware ADS-B
Mon 02:46:04 AM 35.7120 141.0370 234° Southwest 266 306 9,500 -1,200 Descending FlightAware ADS-B
Mon 02:46:24 AM 35.6940 141.0110 230° Southwest 266 306 9,100 -1,350 Descending FlightAware ADS-B
Mon 02:46:44 AM 35.6770 140.9850 231° Southwest 261 300 8,600 -1,227 Descending FlightAware ADS-B
Mon 02:47:08 AM 35.6620 140.9630 230° Southwest 260 299 8,200 -1,500 Descending FlightAware ADS-B
Mon 02:47:28 AM 35.6420 140.9330 231° Southwest 258 297 7,500 -1,650 Descending FlightAware ADS-B
Mon 02:47:48 AM 35.6280 140.9120 231° Southwest 262 302 7,100 -1,429 Descending FlightAware ADS-B
Mon 02:48:10 AM 35.6110 140.8870 230° Southwest 260 299 6,500 -1,622 Descending FlightAware ADS-B
Mon 02:48:25 AM 35.6000 140.8700 231° Southwest 262 302 6,100 -1,200 Descending FlightAware ADS-B
Mon 02:48:45 AM 35.5850 140.8480 230° Southwest 262 302 5,800 -1,024 Descending FlightAware ADS-B
Mon 02:49:06 AM 35.5690 140.8230 232° Southwest 258 297 5,400 -1,167 Descending FlightAware ADS-B
Mon 02:49:21 AM 35.5570 140.8070 227° Southwest 259 298 5,100 -1,200 Descending FlightAware ADS-B
Mon 02:49:41 AM 35.5410 140.7830 231° Southwest 260 299 4,700 -1,102 Descending FlightAware ADS-B
Mon 02:50:10 AM 35.5180 140.7480 231° Southwest 259 298 4,200 -769 Descending FlightAware ADS-B
Mon 02:50:20 AM 35.5110 140.7380 229° Southwest 257 296 4,200 -375 Level FlightAware ADS-B
Mon 02:50:42 AM 35.4940 140.7120 231° Southwest 252 290 4,000 -316 Descending FlightAware ADS-B
Mon 02:50:58 AM 35.4820 140.6950 229° Southwest 253 291 4,000  Level FlightAware ADS-B
Mon 02:51:19 AM 35.4670 140.6700 234° Southwest 250 288 4,000  Level FlightAware ADS-B
Mon 02:51:25 AM 35.4650 140.6630 251° West 247 284 4,000  Level FlightAware ADS-B
Mon 02:51:35 AM 35.4640 140.6490 265° West 249 287 4,000  Level FlightAware ADS-B
Mon 02:51:40 AM 35.4650 140.6410 279° West 246 283 4,000  Level FlightAware ADS-B
Mon 02:51:52 AM 35.4680 140.6320 292° West 244 281 4,000  Level FlightAware ADS-B
Mon 02:52:06 AM 35.4780 140.6110 300° West 222 255 4,000  Level FlightAware ADS-B
Mon 02:52:28 AM 35.4880 140.5870 297° West 208 239 4,000  Level FlightAware ADS-B
Mon 02:52:50 AM 35.4990 140.5680 305° West 201 231 4,000  Level FlightAware ADS-B
Mon 02:53:05 AM 35.5120 140.5570 325° Northwest 194 223 4,000  Level FlightAware ADS-B
Mon 02:53:27 AM 35.5290 140.5450 330° Northwest 190 219 4,000  Level FlightAware ADS-B
Mon 02:53:42 AM 35.5410 140.5360 329° Northwest 185 213 4,000  Level FlightAware ADS-B
Mon 02:54:00 AM 35.5540 140.5270 331° Northwest 169 194 4,000  Level FlightAware ADS-B
Mon 02:54:22 AM 35.5670 140.5180 331° Northwest 184 212 4,000 -279 Level FlightAware ADS-B
Mon 02:54:43 AM 35.5830 140.5060 329° Northwest 169 194 3,800 -833 Descending FlightAware ADS-B
Mon 02:54:58 AM 35.5930 140.4990 330° Northwest 167 192 3,500 -1,000 Descending FlightAware ADS-B
Mon 02:55:25 AM 35.6110 140.4860 330° Northwest 155 178 3,100 -947 Descending FlightAware ADS-B
Mon 02:55:36 AM 35.6170 140.4820 332° Northwest 154 177 2,900 -818 Descending FlightAware ADS-B
Mon 02:55:47 AM 35.6260 140.4760 332° Northwest 154 177 2,800 -774 Descending FlightAware ADS-B
Mon 02:56:07 AM 35.6370 140.4670 326° Northwest 157 181 2,500 -1,000 Descending FlightAware ADS-B
Mon 02:56:29 AM 35.6550 140.4550 332° Northwest 165 190 2,100 -955 Descending FlightAware ADS-B
Mon 02:56:51 AM 35.6690 140.4440 327° Northwest 163 188 1,800 -878 Descending FlightAware ADS-B
Mon 02:57:10 AM 35.6810 140.4350 329° Northwest 159 183 1,500 -900 Descending FlightAware ADS-B
Mon 02:57:31 AM 35.6950 140.4260 332° Northwest 147 169 1,200 -686 Descending FlightAware ADS-B
Mon 02:57:45 AM 35.7020 140.4200 325° Northwest 141 162 1,100 -750 Descending FlightAware ADS-B
Mon 02:58:03 AM 35.7130 140.4130 333° Northwest 139 160 800 -789 Descending FlightAware ADS-B
Mon 02:58:23 AM 35.7230 140.4060 330° Northwest 138 159 600 -615 Descending FlightAware ADS-B
Mon 02:58:42 AM 35.7340 140.3980 329° Northwest 141 162 400 -421 Descending FlightAware ADS-B
Mon 02:59:20 AM 35.7530 140.3830 327° Northwest 140 161 200 -316 Descending FlightAware ADS-B

Login

Don't have an account? Register now (free) for customized features, flight alerts, and more!